Time,TemperatureF,DewpointF,PressureIn,WindDirection,WindDirectionDegrees,WindSpeedMPH,WindSpeedGustMPH,Humidity,HourlyPrecipIn,Conditions,Clouds,dailyrainin,SolarRadiationWatts/m^2,SoftwareType,DateUTC
2013-08-04 00:00:00,76.2,74.7,30.08,ENE,77,1.0,2.0,95,0.00,,SCT024TCU,1.10,0.00,VWS V14.01,2013-08-04 04:00:00,
2013-08-04 00:01:00,76.2,74.7,30.08,ENE,77,2.0,2.0,95,0.00,,SCT110,0.00,0.00,VWS V14.01,2013-08-04 04:01:00,
2013-08-04 00:02:00,76.2,74.7,30.08,ENE,77,0.0,4.0,95,0.00,,SCT110,0.00,0.00,VWS V14.01,2013-08-04 04:02:00,
2013-08-04 00:05:00,76.1,74.6,30.08,ENE,77,0.0,4.0,95,0.00,,SCT024TCU,0.00,0.00,VWS V14.01,2013-08-04 04:05:00,
2013-08-04 00:07:00,76.1,74.6,30.08,ENE,77,2.0,2.0,95,0.00,,SCT110,0.00,0.00,VWS V14.01,2013-08-04 04:07:00,
2013-08-04 00:10:00,76.0,74.5,30.08,ENE,77,0.0,3.0,95,0.00,,SCT024TCU,0.00,0.00,VWS V14.01,2013-08-04 04:10:00,
2013-08-04 00:11:00,75.9,74.4,30.08,ENE,77,0.0,1.0,95,0.00,,SCT110,0.00,0.00,VWS V14.01,2013-08-04 04:11:00,
2013-08-04 00:15:00,75.9,74.4,30.08,ENE,77,0.0,3.0,95,0.00,,SCT024TCU,0.00,0.00,VWS V14.01,2013-08-04 04:15:00,
2013-08-04 00:17:00,75.9,74.4,30.08,ENE,77,2.0,2.0,95,0.00,,SCT110,0.00,0.00,VWS V14.01,2013-08-04 04:17:00,
2013-08-04 00:20:00,75.9,74.4,30.07,ENE,77,0.0,3.0,95,0.00,,SCT024TCU,0.00,0.00,VWS V14.01,2013-08-04 04:20:00,
2013-08-04 00:22:00,75.9,74.4,30.07,ENE,77,1.0,1.0,95,0.00,,SCT110,0.00,0.00,VWS V14.01,2013-08-04 04:22:00,
2013-08-04 00:25:00,75.9,74.4,30.07,ENE,77,0.0,2.0,95,0.00,,SCT024TCU,0.00,0.00,VWS V14.01,2013-08-04 04:25:00,
2013-08-04 00:27:00,75.9,74.4,30.07,ENE,77,0.0,0.0,95,0.00,,SCT110,0.00,0.00,VWS V14.01,2013-08-04 04:27:00,
2013-08-04 00:30:00,75.9,74.4,30.07,ENE,77,0.0,0.0,95,0.00,,SCT024TCU,0.00,0.00,VWS V14.01,2013-08-04 04:30:00,
2013-08-04 00:32:00,75.9,74.4,30.07,ENE,77,1.0,3.0,95,0.00,,SCT110,0.00,0.00,VWS V14.01,2013-08-04 04:32:00,
2013-08-04 00:35:00,75.9,74.4,30.07,ENE,77,1.0,3.0,95,0.00,,SCT024TCU,0.00,0.00,VWS V14.01,2013-08-04 04:35:00,
2013-08-04 00:37:00,75.9,74.4,30.07,ENE,77,2.0,3.0,95,0.00,,SCT110,0.00,0.00,VWS V14.01,2013-08-04 04:37:00,
2013-08-04 00:40:00,75.9,74.4,30.07,ENE,77,2.0,3.0,95,0.00,,SCT024TCU,0.00,0.00,VWS V14.01,2013-08-04 04:40:00,
2013-08-04 00:42:00,75.9,74.4,30.07,ENE,77,1.0,2.0,95,0.00,,SCT110,0.00,0.00,VWS V14.01,2013-08-04 04:42:00,
2013-08-04 00:45:00,75.9,74.4,30.07,ENE,77,0.0,2.0,95,0.00,,SCT024TCU,0.00,0.00,VWS V14.01,2013-08-04 04:45:00,
2013-08-04 00:47:00,75.9,74.4,30.07,ENE,77,0.0,0.0,95,0.00,,SCT110,0.00,0.00,VWS V14.01,2013-08-04 04:47:00,
2013-08-04 00:50:00,75.9,74.4,30.07,ENE,77,0.0,0.0,95,0.00,,SCT024TCU,0.00,0.00,VWS V14.01,2013-08-04 04:50:00,
2013-08-04 00:52:00,76.0,74.5,30.07,ENE,77,0.0,0.0,95,0.00,,SCT110,0.00,0.00,VWS V14.01,2013-08-04 04:52:00,
2013-08-04 00:55:00,76.0,74.5,30.07,ENE,77,0.0,0.0,95,0.00,,SCT024TCU,0.00,0.00,VWS V14.01,2013-08-04 04:55:00,
2013-08-04 00:57:00,76.0,74.5,30.07,ENE,77,0.0,0.0,95,0.00,,SCT110,0.00,0.00,VWS V14.01,2013-08-04 04:57:00,
2013-08-04 01:00:00,75.9,74.4,30.07,ENE,77,0.0,1.0,95,0.00,,SCT024TCU,0.00,0.00,VWS V14.01,2013-08-04 05:00:00,
2013-08-04 01:02:00,75.9,74.4,30.07,ENE,77,1.0,1.0,95,0.00,,SCT110,0.00,0.00,VWS V14.01,2013-08-04 05:02:00,
2013-08-04 01:05:00,75.8,74.3,30.07,ENE,77,1.0,1.0,95,0.00,,SCT024TCU,0.00,0.00,VWS V14.01,2013-08-04 05:05:00,
2013-08-04 01:07:00,75.8,74.3,30.07,ENE,77,0.0,1.0,95,0.00,,SCT110,0.00,0.00,VWS V14.01,2013-08-04 05:07:00,
2013-08-04 01:10:00,75.8,74.3,30.07,ENE,77,2.0,2.0,95,0.00,,SCT024TCU,0.00,0.00,VWS V14.01,2013-08-04 05:10:00,
2013-08-04 01:12:00,75.9,74.4,30.07,ENE,77,0.0,2.0,95,0.00,,SCT110,0.00,0.00,VWS V14.01,2013-08-04 05:12:00,
2013-08-04 01:15:00,75.9,74.4,30.07,ENE,77,0.0,2.0,95,0.00,,SCT024TCU,0.00,0.00,VWS V14.01,2013-08-04 05:15:00,
2013-08-04 01:17:00,75.9,74.4,30.07,ENE,77,0.0,1.0,95,0.00,,SCT110,0.00,0.00,VWS V14.01,2013-08-04 05:17:00,
2013-08-04 01:20:00,76.0,74.5,30.07,ENE,77,0.0,1.0,95,0.00,,SCT024TCU,0.00,0.00,VWS V14.01,2013-08-04 05:20:00,
2013-08-04 01:22:00,76.0,74.5,30.06,ENE,77,0.0,0.0,95,0.00,,SCT110,0.00,0.00,VWS V14.01,2013-08-04 05:22:00,
2013-08-04 01:25:00,76.1,74.6,30.06,ENE,77,0.0,0.0,95,0.00,,SCT024TCU,0.00,0.00,VWS V14.01,2013-08-04 05:25:00,
2013-08-04 01:27:00,76.1,74.6,30.06,ENE,77,0.0,0.0,95,0.00,,SCT110,0.00,0.00,VWS V14.01,2013-08-04 05:27:00,
2013-08-04 01:30:00,76.1,74.6,30.07,ENE,77,0.0,0.0,95,0.00,,SCT024TCU,0.00,0.00,VWS V14.01,2013-08-04 05:30:00,
2013-08-04 01:32:00,76.1,74.6,30.06,ENE,77,0.0,0.0,95,0.00,,SCT110,0.00,0.00,VWS V14.01,2013-08-04 05:32:00,
2013-08-04 01:35:00,76.1,74.6,30.06,ENE,77,0.0,0.0,95,0.00,,SCT024TCU,0.00,0.00,VWS V14.01,2013-08-04 05:35:00,
2013-08-04 01:37:00,76.1,74.6,30.06,ENE,77,0.0,0.0,95,0.00,,SCT110,0.00,0.00,VWS V14.01,2013-08-04 05:37:00,
2013-08-04 01:40:00,76.1,74.6,30.06,ENE,77,0.0,0.0,95,0.00,,SCT024TCU,0.00,0.00,VWS V14.01,2013-08-04 05:40:00,
2013-08-04 01:42:00,76.1,74.6,30.06,ENE,77,0.0,0.0,95,0.00,,SCT110,0.00,0.00,VWS V14.01,2013-08-04 05:42:00,
2013-08-04 01:45:00,76.1,74.6,30.06,ENE,77,0.0,1.0,95,0.00,,SCT024TCU,0.00,0.00,VWS V14.01,2013-08-04 05:45:00,
2013-08-04 01:47:00,76.1,74.2,30.06,ENE,77,0.0,0.0,94,0.00,,SCT110,0.00,0.00,VWS V14.01,2013-08-04 05:47:00,
2013-08-04 01:50:00,76.1,74.6,30.06,ENE,77,1.0,1.0,95,0.00,,SCT024TCU,0.00,0.00,VWS V14.01,2013-08-04 05:50:00,
2013-08-04 01:52:00,76.1,74.2,30.05,ENE,77,1.0,2.0,94,0.00,,SCT110,0.00,0.00,VWS V14.01,2013-08-04 05:52:00,
2013-08-04 01:55:00,76.1,74.2,30.05,ENE,77,0.0,2.0,94,0.00,,SCT024TCU,0.00,0.00,VWS V14.01,2013-08-04 05:55:00,
2013-08-04 01:57:00,76.1,74.2,30.05,ENE,77,1.0,1.0,94,0.00,,SCT110,0.00,0.00,VWS V14.01,2013-08-04 05:57:00,
2013-08-04 02:00:00,76.2,74.3,30.05,ENE,77,0.0,1.0,94,0.00,,SCT024TCU,0.00,0.00,VWS V14.01,2013-08-04 06:00:00,
2013-08-04 02:02:00,76.2,74.3,30.05,ENE,77,0.0,0.0,94,0.00,,SCT110,0.00,0.00,VWS V14.01,2013-08-04 06:02:00,
2013-08-04 02:05:00,76.2,74.3,30.05,ENE,77,0.0,0.0,94,0.00,,SCT024TCU,0.00,0.00,VWS V14.01,2013-08-04 06:05:00,
2013-08-04 02:07:00,76.2,74.3,30.05,ENE,77,0.0,0.0,94,0.00,,SCT110,0.00,0.00,VWS V14.01,2013-08-04 06:07:00,
2013-08-04 02:10:00,76.2,74.3,30.05,ENE,77,0.0,0.0,94,0.00,,SCT024TCU,0.00,0.00,VWS V14.01,2013-08-04 06:10:00,
2013-08-04 02:12:00,76.2,74.3,30.05,ENE,77,0.0,0.0,94,0.00,,SCT110,0.00,0.00,VWS V14.01,2013-08-04 06:12:00,
2013-08-04 02:15:00,76.2,74.3,30.04,ENE,77,0.0,0.0,94,0.00,,SCT024TCU,0.00,0.00,VWS V14.01,2013-08-04 06:15:00,
2013-08-04 02:17:00,76.2,74.3,30.04,ENE,77,0.0,0.0,94,0.00,,SCT110,0.00,0.00,VWS V14.01,2013-08-04 06:17:00,
2013-08-04 02:20:00,76.2,74.3,30.04,ENE,77,0.0,0.0,94,0.00,,SCT024TCU,0.00,0.00,VWS V14.01,2013-08-04 06:20:00,
2013-08-04 02:22:00,76.2,74.3,30.04,ENE,77,0.0,0.0,94,0.00,,SCT110,0.00,0.00,VWS V14.01,2013-08-04 06:22:00,
2013-08-04 02:25:00,76.2,74.3,30.04,ENE,77,0.0,0.0,94,0.00,,SCT024TCU,0.00,0.00,VWS V14.01,2013-08-04 06:25:00,
2013-08-04 02:27:00,76.2,74.3,30.04,ENE,77,0.0,0.0,94,0.00,,SCT110,0.00,0.00,VWS V14.01,2013-08-04 06:27:00,
2013-08-04 02:30:00,76.2,74.3,30.04,ENE,77,0.0,0.0,94,0.00,,SCT024TCU,0.00,0.00,VWS V14.01,2013-08-04 06:30:00,
2013-08-04 02:32:00,76.2,74.3,30.04,ENE,77,0.0,0.0,94,0.00,,SCT110,0.00,0.00,VWS V14.01,2013-08-04 06:32:00,
2013-08-04 02:35:00,76.2,74.3,30.05,ENE,77,0.0,0.0,94,0.00,,SCT024TCU,0.00,0.00,VWS V14.01,2013-08-04 06:35:00,
2013-08-04 02:37:00,76.2,74.3,30.05,ENE,77,0.0,1.0,94,0.00,,SCT110,0.00,0.00,VWS V14.01,2013-08-04 06:37:00,
2013-08-04 02:40:00,76.2,74.3,30.04,ENE,77,0.0,1.0,94,0.00,,SCT024TCU,0.00,0.00,VWS V14.01,2013-08-04 06:40:00,
2013-08-04 02:42:00,76.2,74.3,30.05,ENE,77,0.0,0.0,94,0.00,,SCT110,0.00,0.00,VWS V14.01,2013-08-04 06:42:00,
2013-08-04 02:45:00,76.2,74.3,30.05,ENE,77,0.0,0.0,94,0.00,,SCT024TCU,0.00,0.00,VWS V14.01,2013-08-04 06:45:00,
2013-08-04 02:47:00,76.2,74.3,30.05,ENE,77,0.0,0.0,94,0.00,,SCT110,0.00,0.00,VWS V14.01,2013-08-04 06:47:00,
2013-08-04 02:50:00,76.2,74.3,30.04,ENE,77,0.0,0.0,94,0.00,,SCT024TCU,0.00,0.00,VWS V14.01,2013-08-04 06:50:00,
2013-08-04 02:52:00,76.2,74.3,30.04,ENE,77,0.0,0.0,94,0.00,,SCT110,0.00,0.00,VWS V14.01,2013-08-04 06:52:00,
2013-08-04 02:55:00,76.2,74.3,30.04,ENE,77,0.0,0.0,94,0.00,,SCT024TCU,0.00,0.00,VWS V14.01,2013-08-04 06:55:00,
2013-08-04 02:57:00,76.2,74.3,30.04,ENE,77,0.0,0.0,94,0.00,,SCT110,0.00,0.00,VWS V14.01,2013-08-04 06:57:00,
2013-08-04 03:00:00,76.2,74.3,30.04,ENE,77,0.0,0.0,94,0.00,,SCT024TCU,0.00,0.00,VWS V14.01,2013-08-04 07:00:00,
2013-08-04 03:02:00,76.2,74.3,30.04,ENE,77,0.0,0.0,94,0.00,,SCT110,0.00,0.00,VWS V14.01,2013-08-04 07:02:00,
2013-08-04 03:05:00,76.2,74.3,30.04,ENE,77,0.0,0.0,94,0.00,,SCT024TCU,0.00,0.00,VWS V14.01,2013-08-04 07:05:00,
2013-08-04 03:07:00,76.3,74.4,30.04,ENE,77,0.0,0.0,94,0.00,,SCT110,0.00,0.00,VWS V14.01,2013-08-04 07:07:00,
2013-08-04 03:10:00,76.3,74.4,30.04,ENE,77,0.0,0.0,94,0.00,,SCT024TCU,0.00,0.00,VWS V14.01,2013-08-04 07:10:00,
2013-08-04 03:12:00,76.3,74.8,30.04,ENE,77,0.0,0.0,95,0.00,,SCT110,0.00,0.00,VWS V14.01,2013-08-04 07:12:00,
2013-08-04 03:15:00,76.4,74.9,30.04,ENE,77,0.0,0.0,95,0.00,,SCT024TCU,0.00,0.00,VWS V14.01,2013-08-04 07:15:00,
2013-08-04 03:17:00,76.4,74.9,30.04,ENE,77,0.0,0.0,95,0.00,,SCT110,0.00,0.00,VWS V14.01,2013-08-04 07:17:00,
2013-08-04 03:20:00,76.3,74.8,30.04,ENE,77,0.0,1.0,95,0.00,,SCT024TCU,0.00,0.00,VWS V14.01,2013-08-04 07:20:00,
2013-08-04 03:22:00,76.3,74.8,30.04,ENE,77,0.0,0.0,95,0.00,,SCT110,0.00,0.00,VWS V14.01,2013-08-04 07:22:00,
2013-08-04 03:25:00,76.3,74.8,30.04,ENE,77,0.0,0.0,95,0.00,,SCT024TCU,0.00,0.00,VWS V14.01,2013-08-04 07:25:00,
2013-08-04 03:27:00,76.3,74.8,30.04,ENE,77,0.0,0.0,95,0.00,,SCT110,0.00,0.00,VWS V14.01,2013-08-04 07:27:00,
2013-08-04 03:30:00,76.4,74.9,30.04,ENE,77,0.0,1.0,95,0.00,,SCT024TCU,0.00,0.00,VWS V14.01,2013-08-04 07:30:00,
2013-08-04 03:32:00,76.3,74.8,30.04,ENE,77,0.0,0.0,95,0.00,,SCT110,0.00,0.00,VWS V14.01,2013-08-04 07:32:00,
2013-08-04 03:35:00,76.3,74.4,30.04,ENE,77,0.0,0.0,94,0.00,,SCT024TCU,0.00,0.00,VWS V14.01,2013-08-04 07:35:00,
2013-08-04 03:37:00,76.3,74.4,30.04,ENE,77,0.0,0.0,94,0.00,,SCT110,0.00,0.00,VWS V14.01,2013-08-04 07:37:00,
2013-08-04 03:40:00,76.3,74.8,30.04,ENE,77,0.0,0.0,95,0.00,,SCT024TCU,0.00,0.00,VWS V14.01,2013-08-04 07:40:00,
2013-08-04 03:42:00,76.4,74.9,30.04,ENE,77,0.0,0.0,95,0.00,,SCT110,0.00,0.00,VWS V14.01,2013-08-04 07:42:00,
2013-08-04 03:45:00,76.4,74.9,30.04,ENE,77,0.0,0.0,95,0.00,,SCT024TCU,0.00,0.00,VWS V14.01,2013-08-04 07:45:00,
2013-08-04 03:47:00,76.4,74.9,30.04,ENE,77,0.0,0.0,95,0.00,,SCT110,0.00,0.00,VWS V14.01,2013-08-04 07:47:00,
2013-08-04 03:50:00,76.4,74.9,30.04,ENE,77,0.0,1.0,95,0.00,,SCT024TCU,0.00,0.00,VWS V14.01,2013-08-04 07:50:00,
2013-08-04 03:52:00,76.4,74.9,30.04,ENE,77,0.0,0.0,95,0.00,,SCT110,0.00,0.00,VWS V14.01,2013-08-04 07:52:00,
2013-08-04 03:55:00,76.5,75.0,30.04,ENE,77,0.0,0.0,95,0.00,,SCT024TCU,0.00,0.00,VWS V14.01,2013-08-04 07:55:00,
2013-08-04 03:57:00,76.5,75.0,30.04,ENE,77,0.0,0.0,95,0.00,,SCT110,0.00,0.00,VWS V14.01,2013-08-04 07:57:00,
2013-08-04 04:00:00,76.4,74.9,30.04,ENE,77,0.0,1.0,95,0.00,,SCT024TCU,0.00,0.00,VWS V14.01,2013-08-04 08:00:00,
2013-08-04 04:02:00,76.4,74.9,30.03,ENE,77,0.0,0.0,95,0.00,,SCT110,0.00,0.00,VWS V14.01,2013-08-04 08:02:00,
2013-08-04 04:05:00,76.4,74.9,30.03,ENE,77,0.0,0.0,95,0.00,,SCT024TCU,0.00,0.00,VWS V14.01,2013-08-04 08:05:00,
2013-08-04 04:07:00,76.3,74.8,30.03,ENE,77,0.0,0.0,95,0.00,,SCT110,0.00,0.00,VWS V14.01,2013-08-04 08:07:00,
2013-08-04 04:10:00,76.3,74.4,30.03,ENE,77,0.0,0.0,94,0.00,,SCT024TCU,0.00,0.00,VWS V14.01,2013-08-04 08:10:00,
2013-08-04 04:12:00,76.3,74.4,30.03,ENE,77,0.0,0.0,94,0.00,,SCT110,0.00,0.00,VWS V14.01,2013-08-04 08:12:00,
2013-08-04 04:15:00,76.2,74.3,30.03,ENE,77,0.0,0.0,94,0.00,,SCT024TCU,0.00,0.00,VWS V14.01,2013-08-04 08:15:00,
2013-08-04 04:17:00,76.2,74.3,30.03,ENE,77,0.0,0.0,94,0.00,,SCT110,0.00,0.00,VWS V14.01,2013-08-04 08:17:00,
2013-08-04 04:20:00,76.2,74.3,30.03,ENE,77,0.0,0.0,94,0.00,,SCT024TCU,0.00,0.00,VWS V14.01,2013-08-04 08:20:00,
2013-08-04 04:22:00,76.2,74.3,30.03,ENE,77,0.0,0.0,94,0.00,,SCT110,0.00,0.00,VWS V14.01,2013-08-04 08:22:00,
2013-08-04 04:25:00,76.2,74.3,30.03,ENE,77,0.0,0.0,94,0.00,,SCT024TCU,0.00,0.00,VWS V14.01,2013-08-04 08:25:00,
2013-08-04 04:27:00,76.2,74.3,30.03,ENE,77,0.0,0.0,94,0.00,,SCT110,0.00,0.00,VWS V14.01,2013-08-04 08:27:00,
2013-08-04 04:30:00,76.2,74.3,30.03,ENE,77,0.0,0.0,94,0.00,,SCT024TCU,0.00,0.00,VWS V14.01,2013-08-04 08:30:00,
2013-08-04 04:32:00,76.2,74.3,30.03,ENE,77,0.0,0.0,94,0.00,,SCT110,0.00,0.00,VWS V14.01,2013-08-04 08:32:00,
2013-08-04 04:35:00,76.2,74.3,30.03,ENE,77,0.0,0.0,94,0.00,,SCT024TCU,0.00,0.00,VWS V14.01,2013-08-04 08:35:00,
2013-08-04 04:37:00,76.2,74.3,30.03,ENE,77,0.0,0.0,94,0.00,,SCT110,0.00,0.00,VWS V14.01,2013-08-04 08:37:00,
2013-08-04 04:40:00,76.2,74.3,30.03,ENE,77,0.0,1.0,94,0.00,,SCT024TCU,0.00,0.00,VWS V14.01,2013-08-04 08:40:00,
2013-08-04 04:42:00,76.2,74.3,30.03,ENE,77,0.0,1.0,94,0.00,,SCT110,0.00,0.00,VWS V14.01,2013-08-04 08:42:00,
2013-08-04 04:45:00,76.2,74.3,30.03,ENE,77,0.0,1.0,94,0.00,,SCT024TCU,0.00,0.00,VWS V14.01,2013-08-04 08:45:00,
2013-08-04 04:47:00,76.1,74.2,30.03,ENE,77,0.0,1.0,94,0.00,,SCT110,0.00,0.00,VWS V14.01,2013-08-04 08:47:00,
2013-08-04 04:50:00,76.1,74.2,30.03,ENE,77,0.0,1.0,94,0.00,,SCT024TCU,0.00,0.00,VWS V14.01,2013-08-04 08:50:00,
2013-08-04 04:52:00,76.1,74.2,30.03,ENE,77,1.0,1.0,94,0.00,,SCT110,0.00,0.00,VWS V14.01,2013-08-04 08:52:00,
2013-08-04 04:55:00,76.1,74.2,30.02,ENE,77,1.0,1.0,94,0.00,,SCT024TCU,0.00,0.00,VWS V14.01,2013-08-04 08:55:00,
2013-08-04 04:57:00,76.2,74.3,30.02,ENE,77,2.0,2.0,94,0.00,,SCT110,0.00,0.00,VWS V14.01,2013-08-04 08:57:00,
2013-08-04 05:00:00,76.2,74.3,30.02,ENE,77,0.0,2.0,94,0.00,,SCT024TCU,0.00,0.00,VWS V14.01,2013-08-04 09:00:00,
2013-08-04 05:02:00,76.2,74.3,30.02,ENE,77,0.0,1.0,94,0.00,,SCT110,0.00,0.00,VWS V14.01,2013-08-04 09:02:00,
2013-08-04 05:05:00,76.2,74.3,30.02,ENE,77,0.0,2.0,94,0.00,,SCT024TCU,0.00,0.00,VWS V14.01,2013-08-04 09:05:00,
2013-08-04 05:07:00,76.2,74.3,30.02,ENE,77,0.0,1.0,94,0.00,,SCT110,0.00,0.00,VWS V14.01,2013-08-04 09:07:00,
2013-08-04 05:10:00,76.2,74.3,30.02,ENE,77,0.0,1.0,94,0.00,,SCT024TCU,0.00,0.00,VWS V14.01,2013-08-04 09:10:00,
2013-08-04 05:12:00,76.3,74.4,30.02,ENE,77,0.0,1.0,94,0.00,,SCT110,0.00,0.00,VWS V14.01,2013-08-04 09:12:00,
2013-08-04 05:15:00,76.3,74.4,30.02,ENE,77,0.0,1.0,94,0.00,,SCT024TCU,0.00,0.00,VWS V14.01,2013-08-04 09:15:00,
2013-08-04 05:17:00,76.3,74.4,30.02,ENE,77,0.0,0.0,94,0.00,,SCT110,0.00,0.00,VWS V14.01,2013-08-04 09:17:00,
2013-08-04 05:20:00,76.3,74.4,30.03,ENE,77,0.0,1.0,94,0.00,,SCT024TCU,0.00,0.00,VWS V14.01,2013-08-04 09:20:00,
2013-08-04 05:22:00,76.3,74.4,30.02,ENE,77,0.0,0.0,94,0.00,,SCT110,0.00,0.00,VWS V14.01,2013-08-04 09:22:00,
2013-08-04 05:25:00,76.3,74.4,30.03,ENE,77,0.0,0.0,94,0.00,,SCT024TCU,0.00,0.00,VWS V14.01,2013-08-04 09:25:00,
2013-08-04 05:27:00,76.3,74.4,30.03,ENE,77,0.0,0.0,94,0.00,,SCT110,0.00,0.00,VWS V14.01,2013-08-04 09:27:00,
2013-08-04 05:30:00,76.4,74.6,30.03,ENE,77,0.0,0.0,94,0.00,,SCT024TCU,0.00,0.00,VWS V14.01,2013-08-04 09:30:00,
2013-08-04 05:32:00,76.3,74.4,30.03,ENE,77,0.0,1.0,94,0.00,,SCT110,0.00,0.00,VWS V14.01,2013-08-04 09:32:00,
2013-08-04 05:35:00,76.3,74.4,30.03,ENE,77,1.0,1.0,94,0.00,,SCT024TCU,0.00,0.00,VWS V14.01,2013-08-04 09:35:00,
2013-08-04 05:37:00,76.3,74.4,30.03,ENE,77,0.0,1.0,94,0.00,,SCT110,0.00,0.00,VWS V14.01,2013-08-04 09:37:00,
2013-08-04 05:40:00,76.2,74.3,30.03,ENE,77,0.0,1.0,94,0.00,,SCT024TCU,0.00,0.00,VWS V14.01,2013-08-04 09:40:00,
2013-08-04 05:42:00,76.2,74.3,30.03,ENE,77,1.0,3.0,94,0.00,,SCT110,0.00,0.00,VWS V14.01,2013-08-04 09:42:00,
2013-08-04 05:45:00,76.2,74.3,30.03,ENE,77,1.0,3.0,94,0.00,,SCT024TCU,0.00,0.00,VWS V14.01,2013-08-04 09:45:00,
2013-08-04 05:47:00,76.2,74.3,30.03,ENE,77,0.0,2.0,94,0.00,,SCT110,0.00,0.00,VWS V14.01,2013-08-04 09:47:00,
2013-08-04 05:50:00,76.2,74.3,30.03,ENE,77,0.0,2.0,94,0.00,,SCT024TCU,0.00,0.00,VWS V14.01,2013-08-04 09:50:00,
2013-08-04 05:52:00,76.2,74.3,30.03,ENE,77,1.0,3.0,94,0.00,,SCT110,0.00,0.00,VWS V14.01,2013-08-04 09:52:00,
2013-08-04 05:55:00,76.2,74.3,30.03,ENE,77,1.0,4.0,94,0.00,,SCT024TCU,0.00,0.00,VWS V14.01,2013-08-04 09:55:00,
2013-08-04 05:57:00,76.2,74.3,30.03,ENE,77,0.0,3.0,94,0.00,,SCT110,0.00,0.00,VWS V14.01,2013-08-04 09:57:00,
2013-08-04 06:00:00,76.2,74.3,30.03,ENE,77,0.0,3.0,94,0.00,,SCT024TCU,0.00,0.00,VWS V14.01,2013-08-04 10:00:00,
2013-08-04 06:02:00,76.2,74.3,30.03,ENE,77,0.0,3.0,94,0.00,,SCT110,0.00,0.00,VWS V14.01,2013-08-04 10:02:00,
2013-08-04 06:05:00,76.2,74.3,30.03,ENE,77,1.0,3.0,94,0.00,,SCT024TCU,0.00,0.00,VWS V14.01,2013-08-04 10:05:00,
2013-08-04 06:07:00,76.2,74.3,30.03,ENE,77,0.0,2.0,94,0.00,,SCT110,0.00,0.00,VWS V14.01,2013-08-04 10:07:00,
2013-08-04 06:10:00,76.2,74.3,30.04,ENE,77,0.0,4.0,94,0.00,,SCT024TCU,0.00,0.00,VWS V14.01,2013-08-04 10:10:00,
2013-08-04 06:12:00,76.2,74.3,30.04,ENE,77,0.0,1.0,94,0.00,,SCT110,0.00,0.00,VWS V14.01,2013-08-04 10:12:00,
2013-08-04 06:15:00,76.2,74.3,30.04,ENE,77,0.0,2.0,94,0.00,,SCT024TCU,0.00,0.00,VWS V14.01,2013-08-04 10:15:00,
2013-08-04 06:17:00,76.2,74.3,30.04,ENE,77,0.0,0.0,94,0.00,,SCT110,0.00,0.00,VWS V14.01,2013-08-04 10:17:00,
2013-08-04 06:20:00,76.2,74.3,30.04,ENE,77,1.0,1.0,94,0.00,,SCT024TCU,0.00,0.00,VWS V14.01,2013-08-04 10:20:00,
2013-08-04 06:22:00,76.2,74.3,30.04,ENE,77,1.0,2.0,94,0.00,,SCT110,0.00,0.00,VWS V14.01,2013-08-04 10:22:00,
2013-08-04 06:25:00,76.3,74.4,30.04,ENE,77,1.0,3.0,94,0.00,,SCT024TCU,0.00,0.00,VWS V14.01,2013-08-04 10:25:00,
2013-08-04 06:27:00,76.3,74.4,30.04,ENE,77,3.0,3.0,94,0.00,,SCT110,0.00,0.00,VWS V14.01,2013-08-04 10:27:00,
2013-08-04 06:30:00,76.3,74.4,30.04,ENE,77,0.0,3.0,94,0.00,,SCT024TCU,0.00,0.00,VWS V14.01,2013-08-04 10:30:00,
2013-08-04 06:32:00,76.3,74.4,30.04,ENE,77,0.0,1.0,94,0.00,,SCT110,0.00,0.00,VWS V14.01,2013-08-04 10:32:00,
2013-08-04 06:35:00,76.4,74.6,30.04,ENE,77,0.0,1.0,94,0.00,,SCT024TCU,0.00,0.00,VWS V14.01,2013-08-04 10:35:00,
2013-08-04 06:37:00,76.4,74.6,30.04,ENE,77,0.0,1.0,94,0.00,,SCT110,0.00,0.00,VWS V14.01,2013-08-04 10:37:00,
2013-08-04 06:40:00,76.4,74.6,30.04,ENE,77,0.0,1.0,94,0.00,,SCT024TCU,0.00,0.00,VWS V14.01,2013-08-04 10:40:00,
2013-08-04 06:42:00,76.4,74.6,30.04,ENE,77,0.0,1.0,94,0.00,,SCT110,0.00,0.00,VWS V14.01,2013-08-04 10:42:00,
2013-08-04 06:45:00,76.5,74.7,30.04,ENE,77,0.0,1.0,94,0.00,,SCT024TCU,0.00,0.00,VWS V14.01,2013-08-04 10:45:00,
2013-08-04 06:47:00,76.5,74.7,30.04,ENE,77,0.0,0.0,94,0.00,,SCT110,0.00,0.00,VWS V14.01,2013-08-04 10:47:00,
2013-08-04 06:50:00,76.5,74.7,30.05,ENE,77,0.0,0.0,94,0.00,,SCT024TCU,0.00,0.00,VWS V14.01,2013-08-04 10:50:00,
2013-08-04 06:52:00,76.6,74.8,30.05,ENE,77,0.0,0.0,94,0.00,,SCT110,0.00,0.00,VWS V14.01,2013-08-04 10:52:00,
2013-08-04 06:55:00,76.6,74.4,30.04,ENE,77,0.0,0.0,93,0.00,,SCT024TCU,0.00,5.00,VWS V14.01,2013-08-04 10:55:00,
2013-08-04 06:57:00,76.6,74.4,30.05,ENE,77,0.0,0.0,93,0.00,,SCT110,0.00,5.00,VWS V14.01,2013-08-04 10:57:00,
2013-08-04 07:00:00,76.6,74.4,30.05,ENE,77,0.0,1.0,93,0.00,,SCT024TCU,0.00,7.00,VWS V14.01,2013-08-04 11:00:00,
2013-08-04 07:02:00,76.6,74.4,30.05,ENE,77,0.0,0.0,93,0.00,,SCT110,0.00,11.00,VWS V14.01,2013-08-04 11:02:00,
2013-08-04 07:05:00,76.6,74.4,30.05,ENE,77,0.0,0.0,93,0.00,,SCT024TCU,0.00,14.00,VWS V14.01,2013-08-04 11:05:00,
2013-08-04 07:07:00,76.6,74.4,30.05,ENE,77,0.0,0.0,93,0.00,,SCT110,0.00,18.00,VWS V14.01,2013-08-04 11:07:00,
2013-08-04 07:10:00,76.6,74.4,30.05,ENE,77,0.0,0.0,93,0.00,,SCT024TCU,0.00,26.00,VWS V14.01,2013-08-04 11:10:00,
2013-08-04 07:12:00,76.6,74.4,30.05,ENE,77,0.0,0.0,93,0.00,,SCT110,0.00,32.00,VWS V14.01,2013-08-04 11:12:00,
2013-08-04 07:15:00,76.7,74.5,30.05,ENE,77,0.0,0.0,93,0.00,,SCT024TCU,0.00,44.00,VWS V14.01,2013-08-04 11:15:00,
2013-08-04 07:17:00,76.7,74.5,30.05,ENE,77,0.0,0.0,93,0.00,,SCT110,0.00,51.00,VWS V14.01,2013-08-04 11:17:00,
2013-08-04 07:20:00,76.8,74.6,30.05,ENE,77,0.0,0.0,93,0.00,,SCT024TCU,0.00,65.00,VWS V14.01,2013-08-04 11:20:00,
2013-08-04 07:22:00,76.8,74.6,30.05,ENE,77,0.0,0.0,93,0.00,,SCT110,0.00,69.00,VWS V14.01,2013-08-04 11:22:00,
2013-08-04 07:25:00,77.0,74.8,30.05,ENE,77,0.0,0.0,93,0.00,,SCT024TCU,0.00,83.00,VWS V14.01,2013-08-04 11:25:00,
2013-08-04 07:27:00,77.1,74.9,30.05,ENE,77,0.0,0.0,93,0.00,,SCT110,0.00,90.00,VWS V14.01,2013-08-04 11:27:00,
2013-08-04 07:30:00,77.3,75.1,30.05,ENE,77,0.0,0.0,93,0.00,,SCT024TCU,0.00,105.00,VWS V14.01,2013-08-04 11:30:00,
2013-08-04 07:32:00,77.4,75.5,30.05,ENE,77,0.0,0.0,94,0.00,,SCT110,0.00,113.00,VWS V14.01,2013-08-04 11:32:00,
2013-08-04 07:35:00,77.6,75.7,30.05,ENE,77,0.0,0.0,94,0.00,,SCT024TCU,0.00,127.00,VWS V14.01,2013-08-04 11:35:00,
2013-08-04 07:37:00,77.8,75.9,30.05,ENE,77,0.0,0.0,94,0.00,,SCT110,0.00,134.00,VWS V14.01,2013-08-04 11:37:00,
2013-08-04 07:40:00,78.0,76.1,30.05,ENE,77,0.0,0.0,94,0.00,,SCT024TCU,0.00,146.00,VWS V14.01,2013-08-04 11:40:00,
2013-08-04 07:42:00,78.2,76.3,30.05,ENE,77,0.0,0.0,94,0.00,,SCT110,0.00,156.00,VWS V14.01,2013-08-04 11:42:00,
2013-08-04 07:45:00,78.4,76.5,30.05,ENE,77,0.0,0.0,94,0.00,,SCT024TCU,0.00,169.00,VWS V14.01,2013-08-04 11:45:00,
2013-08-04 07:47:00,78.6,76.7,30.05,ENE,77,0.0,0.0,94,0.00,,SCT110,0.00,174.00,VWS V14.01,2013-08-04 11:47:00,
2013-08-04 07:50:00,78.9,77.0,30.05,ENE,77,0.0,1.0,94,0.00,,SCT024TCU,0.00,178.00,VWS V14.01,2013-08-04 11:50:00,
2013-08-04 07:52:00,78.9,76.7,30.06,ENE,77,0.0,1.0,93,0.00,,SCT110,0.00,185.00,VWS V14.01,2013-08-04 11:52:00,
2013-08-04 07:55:00,79.1,76.9,30.05,ENE,77,0.0,1.0,93,0.00,,SCT024TCU,0.00,197.00,VWS V14.01,2013-08-04 11:55:00,
2013-08-04 07:57:00,79.3,77.1,30.05,ENE,77,0.0,0.0,93,0.00,,SCT110,0.00,197.00,VWS V14.01,2013-08-04 11:57:00,
2013-08-04 08:00:00,79.8,77.6,30.06,ENE,77,0.0,0.0,93,0.00,,SCT024TCU,0.00,204.00,VWS V14.01,2013-08-04 12:00:00,
2013-08-04 08:02:00,79.9,77.7,30.06,ENE,77,0.0,0.0,93,0.00,,SCT110,0.00,188.00,VWS V14.01,2013-08-04 12:02:00,
2013-08-04 08:05:00,80.1,77.9,30.06,ENE,77,0.0,1.0,93,0.00,,SCT024TCU,0.00,100.00,VWS V14.01,2013-08-04 12:05:00,
2013-08-04 08:07:00,80.2,78.0,30.06,ENE,77,0.0,1.0,93,0.00,,SCT110,0.00,111.00,VWS V14.01,2013-08-04 12:07:00,
2013-08-04 08:10:00,80.2,77.7,30.05,ENE,77,0.0,1.0,92,0.00,,SCT024TCU,0.00,121.00,VWS V14.01,2013-08-04 12:10:00,
2013-08-04 08:12:00,80.3,77.8,30.06,ENE,77,0.0,1.0,92,0.00,,SCT110,0.00,113.00,VWS V14.01,2013-08-04 12:12:00,
2013-08-04 08:15:00,80.6,77.7,30.06,ENE,77,0.0,1.0,91,0.00,,SCT024TCU,0.00,229.00,VWS V14.01,2013-08-04 12:15:00,
2013-08-04 08:17:00,80.7,77.8,30.06,ENE,77,0.0,0.0,91,0.00,,SCT110,0.00,250.00,VWS V14.01,2013-08-04 12:17:00,
2013-08-04 08:20:00,81.0,77.8,30.06,ENE,77,0.0,1.0,90,0.00,,SCT024TCU,0.00,229.00,VWS V14.01,2013-08-04 12:20:00,
2013-08-04 08:22:00,81.1,77.9,30.05,ENE,77,1.0,1.0,90,0.00,,SCT110,0.00,223.00,VWS V14.01,2013-08-04 12:22:00,
2013-08-04 08:25:00,81.5,78.3,30.06,ENE,77,0.0,2.0,90,0.00,,SCT024TCU,0.00,230.00,VWS V14.01,2013-08-04 12:25:00,
2013-08-04 08:27:00,81.6,78.1,30.06,ENE,77,0.0,1.0,89,0.00,,SCT110,0.00,241.00,VWS V14.01,2013-08-04 12:27:00,
2013-08-04 08:30:00,82.0,78.4,30.06,ENE,77,0.0,1.0,89,0.00,,SCT024TCU,0.00,258.00,VWS V14.01,2013-08-04 12:30:00,
2013-08-04 08:32:00,82.3,78.4,30.06,ENE,77,0.0,0.0,88,0.00,,SCT110,0.00,267.00,VWS V14.01,2013-08-04 12:32:00,
2013-08-04 08:35:00,82.7,78.4,30.06,ENE,77,1.0,2.0,87,0.00,,SCT024TCU,0.00,281.00,VWS V14.01,2013-08-04 12:35:00,
2013-08-04 08:37:00,82.9,78.6,30.06,ENE,77,0.0,2.0,87,0.00,,SCT110,0.00,285.00,VWS V14.01,2013-08-04 12:37:00,
2013-08-04 08:40:00,83.2,78.2,30.06,ENE,77,1.0,2.0,85,0.00,,SCT024TCU,0.00,301.00,VWS V14.01,2013-08-04 12:40:00,
2013-08-04 08:42:00,83.4,78.4,30.06,ENE,77,0.0,1.0,85,0.00,,SCT110,0.00,306.00,VWS V14.01,2013-08-04 12:42:00,
2013-08-04 08:45:00,83.8,78.4,30.06,ENE,77,0.0,2.0,84,0.00,,SCT024TCU,0.00,320.00,VWS V14.01,2013-08-04 12:45:00,
2013-08-04 08:47:00,84.0,78.3,30.06,ENE,77,0.0,2.0,83,0.00,,SCT110,0.00,327.00,VWS V14.01,2013-08-04 12:47:00,
2013-08-04 08:50:00,84.5,78.8,30.06,ENE,77,0.0,2.0,83,0.00,,SCT024TCU,0.00,345.00,VWS V14.01,2013-08-04 12:50:00,
2013-08-04 08:52:00,84.7,78.6,30.06,ENE,77,0.0,1.0,82,0.00,,SCT110,0.00,352.00,VWS V14.01,2013-08-04 12:52:00,
2013-08-04 08:55:00,85.0,78.5,30.06,ENE,77,0.0,3.0,81,0.00,,SCT024TCU,0.00,367.00,VWS V14.01,2013-08-04 12:55:00,
2013-08-04 08:57:00,85.2,78.3,30.06,ENE,77,0.0,1.0,80,0.00,,SCT110,0.00,374.00,VWS V14.01,2013-08-04 12:57:00,
2013-08-04 09:00:00,85.7,78.8,30.06,ENE,77,2.0,3.0,80,0.00,,SCT024TCU,0.00,392.00,VWS V14.01,2013-08-04 13:00:00,
2013-08-04 09:02:00,85.9,78.6,30.06,ENE,77,0.0,5.0,79,0.00,,SCT110,0.00,397.00,VWS V14.01,2013-08-04 13:02:00,
2013-08-04 09:05:00,86.4,78.7,30.06,ENE,77,1.0,5.0,78,0.00,,SCT024TCU,0.00,415.00,VWS V14.01,2013-08-04 13:05:00,
2013-08-04 09:07:00,86.6,78.5,30.06,ENE,77,0.0,2.0,77,0.00,,FEW110,0.00,411.00,VWS V14.01,2013-08-04 13:07:00,
2013-08-04 09:10:00,86.9,78.4,30.06,ENE,77,0.0,3.0,76,0.00,,SCT024TCU,0.00,287.00,VWS V14.01,2013-08-04 13:10:00,
2013-08-04 09:12:00,87.1,78.6,30.06,ENE,77,2.0,4.0,76,0.00,,FEW110,0.00,367.00,VWS V14.01,2013-08-04 13:12:00,
2013-08-04 09:15:00,87.4,78.9,30.06,ENE,77,0.0,4.0,76,0.00,,SCT024TCU,0.00,455.00,VWS V14.01,2013-08-04 13:15:00,
2013-08-04 09:17:00,87.5,79.0,30.06,ENE,77,0.0,1.0,76,0.00,,FEW110,0.00,376.00,VWS V14.01,2013-08-04 13:17:00,
2013-08-04 09:20:00,87.6,78.7,30.06,ENE,77,0.0,2.0,75,0.00,,SCT024TCU,0.00,466.00,VWS V14.01,2013-08-04 13:20:00,
2013-08-04 09:22:00,87.7,78.8,30.07,ENE,77,0.0,1.0,75,0.00,,FEW110,0.00,476.00,VWS V14.01,2013-08-04 13:22:00,
2013-08-04 09:25:00,88.0,79.1,30.07,ENE,77,1.0,2.0,75,0.00,,SCT024TCU,0.00,478.00,VWS V14.01,2013-08-04 13:25:00,
2013-08-04 09:27:00,88.1,79.2,30.07,ENE,77,0.0,2.0,75,0.00,,FEW110,0.00,490.00,VWS V14.01,2013-08-04 13:27:00,
2013-08-04 09:30:00,88.5,79.6,30.07,ENE,77,0.0,2.0,75,0.00,,SCT024TCU,0.00,489.00,VWS V14.01,2013-08-04 13:30:00,
2013-08-04 09:32:00,88.7,79.3,30.06,ENE,76,1.0,2.0,74,0.00,,FEW110,0.00,494.00,VWS V14.01,2013-08-04 13:32:00,
2013-08-04 09:35:00,88.9,79.5,30.07,ENE,77,0.0,3.0,74,0.00,,SCT024TCU,0.00,504.00,VWS V14.01,2013-08-04 13:35:00,
2013-08-04 09:37:00,89.0,79.2,30.07,ENE,77,0.0,3.0,73,0.00,,FEW110,0.00,510.00,VWS V14.01,2013-08-04 13:37:00,
2013-08-04 09:40:00,89.3,79.5,30.07,ENE,77,1.0,3.0,73,0.00,,SCT024TCU,0.00,547.00,VWS V14.01,2013-08-04 13:40:00,
2013-08-04 09:42:00,89.5,79.7,30.07,ENE,77,4.0,4.0,73,0.00,,FEW110,0.00,557.00,VWS V14.01,2013-08-04 13:42:00,
2013-08-04 09:45:00,89.9,79.2,30.07,ENE,77,0.0,5.0,71,0.00,,SCT024TCU,0.00,408.00,VWS V14.01,2013-08-04 13:45:00,
2013-08-04 09:47:00,90.1,79.4,30.07,ENE,77,3.0,3.0,71,0.00,,FEW110,0.00,548.00,VWS V14.01,2013-08-04 13:47:00,
2013-08-04 09:50:00,90.4,79.7,30.07,ENE,77,1.0,4.0,71,0.00,,SCT024TCU,0.00,617.00,VWS V14.01,2013-08-04 13:50:00,
2013-08-04 09:52:00,90.5,79.4,30.07,ENE,77,0.0,2.0,70,0.00,,FEW110,0.00,592.00,VWS V14.01,2013-08-04 13:52:00,
2013-08-04 09:55:00,90.8,79.7,30.07,ENE,77,1.0,2.0,70,0.00,,SCT024TCU,0.00,234.00,VWS V14.01,2013-08-04 13:55:00,
2013-08-04 09:57:00,90.9,79.3,30.07,ENE,77,3.0,4.0,69,0.00,,FEW110,0.00,383.00,VWS V14.01,2013-08-04 13:57:00,
2013-08-04 10:00:00,90.7,79.1,30.07,East,80,3.0,6.0,69,0.01,,SCT024TCU,0.01,388.00,VWS V14.01,2013-08-04 14:00:00,
2013-08-04 10:02:00,90.5,78.9,30.07,East,80,2.0,4.0,69,0.01,,FEW110,0.01,608.00,VWS V14.01,2013-08-04 14:02:00,
2013-08-04 10:05:00,90.4,79.3,30.07,SSE,156,2.0,6.0,70,0.01,,SCT024TCU,0.01,510.00,VWS V14.01,2013-08-04 14:05:00,
2013-08-04 10:07:00,90.4,79.3,30.07,SSE,157,2.0,2.0,70,0.01,,FEW110,0.01,605.00,VWS V14.01,2013-08-04 14:07:00,
2013-08-04 10:10:00,90.4,79.3,30.07,SSE,165,0.0,5.0,70,0.01,,SCT024TCU,0.01,631.00,VWS V14.01,2013-08-04 14:10:00,
2013-08-04 10:12:00,90.4,79.3,30.07,SSE,167,0.0,3.0,70,0.01,,FEW110,0.01,638.00,VWS V14.01,2013-08-04 14:12:00,
2013-08-04 10:15:00,90.6,79.5,30.07,SSE,167,0.0,3.0,70,0.01,,SCT024TCU,0.01,642.00,VWS V14.01,2013-08-04 14:15:00,
2013-08-04 10:17:00,90.7,79.6,30.07,SSE,167,1.0,2.0,70,0.01,,FEW110,0.01,642.00,VWS V14.01,2013-08-04 14:17:00,
2013-08-04 10:20:00,90.8,79.2,30.07,SSE,167,0.0,4.0,69,0.01,,SCT024TCU,0.01,661.00,VWS V14.01,2013-08-04 14:20:00,
2013-08-04 10:22:00,90.9,79.3,30.07,SSE,164,3.0,4.0,69,0.01,,FEW110,0.01,661.00,VWS V14.01,2013-08-04 14:22:00,
2013-08-04 10:25:00,91.2,79.6,30.07,SSE,168,0.0,4.0,69,0.01,,SCT024TCU,0.01,670.00,VWS V14.01,2013-08-04 14:25:00,
2013-08-04 10:27:00,91.4,79.8,30.07,SW,228,0.0,3.0,69,0.01,,FEW110,0.01,673.00,VWS V14.01,2013-08-04 14:27:00,
2013-08-04 10:30:00,91.7,79.6,30.07,South,184,0.0,3.0,68,0.01,,SCT024TCU,0.01,670.00,VWS V14.01,2013-08-04 14:30:00,
2013-08-04 10:32:00,91.9,79.8,30.06,South,186,0.0,1.0,68,0.01,,FEW110,0.01,671.00,VWS V14.01,2013-08-04 14:32:00,
2013-08-04 10:35:00,92.3,79.8,30.06,SW,217,0.0,6.0,67,0.01,,SCT024TCU,0.01,687.00,VWS V14.01,2013-08-04 14:35:00,
2013-08-04 10:37:00,92.4,79.4,30.06,SSW,199,2.0,3.0,66,0.01,,FEW110,0.01,696.00,VWS V14.01,2013-08-04 14:37:00,
2013-08-04 10:40:00,92.5,79.5,30.06,WSW,241,0.0,5.0,66,0.01,,SCT024TCU,0.01,703.00,VWS V14.01,2013-08-04 14:40:00,
2013-08-04 10:42:00,92.5,79.5,30.06,SSW,208,4.0,6.0,66,0.01,,FEW110,0.01,717.00,VWS V14.01,2013-08-04 14:42:00,
2013-08-04 10:45:00,92.7,79.7,30.06,SSW,206,1.0,6.0,66,0.01,,SCT024TCU,0.01,763.00,VWS V14.01,2013-08-04 14:45:00,
2013-08-04 10:47:00,92.9,79.9,30.06,SSW,205,0.0,2.0,66,0.01,,FEW110,0.01,770.00,VWS V14.01,2013-08-04 14:47:00,
2013-08-04 10:50:00,93.1,79.6,30.06,SSW,193,0.0,6.0,65,0.01,,SCT024TCU,0.01,823.00,VWS V14.01,2013-08-04 14:50:00,
2013-08-04 10:52:00,93.3,79.8,30.06,SSW,192,1.0,1.0,65,0.01,,FEW110,0.01,779.00,VWS V14.01,2013-08-04 14:52:00,
2013-08-04 10:55:00,92.8,79.3,30.06,SW,228,0.0,10.0,65,0.01,,SCT024TCU,0.01,777.00,VWS V14.01,2013-08-04 14:55:00,
2013-08-04 10:57:00,92.7,79.2,30.06,SW,216,4.0,5.0,65,0.01,,FEW110,0.01,798.00,VWS V14.01,2013-08-04 14:57:00,
2013-08-04 11:00:00,92.6,79.1,30.06,SSW,211,1.0,5.0,65,0.01,,SCT024TCU,0.01,754.00,VWS V14.01,2013-08-04 15:00:00,
2013-08-04 11:02:00,92.7,79.2,30.06,WSW,252,5.0,6.0,65,0.00,,SCT034,0.01,728.00,VWS V14.01,2013-08-04 15:02:00,
2013-08-04 11:05:00,92.4,78.5,30.06,WNW,302,3.0,6.0,64,0.00,,SCT024TCU,0.01,747.00,VWS V14.01,2013-08-04 15:05:00,
2013-08-04 11:07:00,92.2,78.3,30.06,WNW,300,0.0,4.0,64,0.00,,SCT034,0.01,768.00,VWS V14.01,2013-08-04 15:07:00,
2013-08-04 11:10:00,92.0,78.6,30.06,SSW,209,0.0,4.0,65,0.00,,SCT024TCU,0.01,322.00,VWS V14.01,2013-08-04 15:10:00,
2013-08-04 11:12:00,92.0,78.6,30.06,SSW,195,3.0,6.0,65,0.00,,SCT034,0.01,798.00,VWS V14.01,2013-08-04 15:12:00,
2013-08-04 11:15:00,92.2,78.7,30.06,WSW,253,7.0,7.0,65,0.00,,SCT024TCU,0.01,795.00,VWS V14.01,2013-08-04 15:15:00,
2013-08-04 11:17:00,92.2,78.7,30.06,SSW,206,0.0,7.0,65,0.00,,SCT034,0.01,715.00,VWS V14.01,2013-08-04 15:17:00,
2013-08-04 11:20:00,92.3,78.4,30.06,SW,232,2.0,7.0,64,0.00,,SCT024TCU,0.01,155.00,VWS V14.01,2013-08-04 15:20:00,
2013-08-04 11:22:00,92.3,78.4,30.06,SW,231,2.0,5.0,64,0.00,,SCT034,0.01,722.00,VWS V14.01,2013-08-04 15:22:00,
2013-08-04 11:25:00,92.4,78.0,30.06,SSW,205,1.0,7.0,63,0.00,,SCT024TCU,0.01,585.00,VWS V14.01,2013-08-04 15:25:00,
2013-08-04 11:27:00,92.7,78.7,30.06,SSW,205,0.0,1.0,64,0.00,,SCT034,0.01,585.00,VWS V14.01,2013-08-04 15:27:00,
2013-08-04 11:30:00,92.9,78.0,30.06,SW,224,3.0,6.0,62,0.00,,SCT024TCU,0.01,810.00,VWS V14.01,2013-08-04 15:30:00,
2013-08-04 11:32:00,92.9,78.0,30.06,SW,221,0.0,7.0,62,0.00,,SCT034,0.01,812.00,VWS V14.01,2013-08-04 15:32:00,
2013-08-04 11:35:00,93.2,78.2,30.06,SW,229,1.0,7.0,62,0.00,,SCT024TCU,0.01,809.00,VWS V14.01,2013-08-04 15:35:00,
2013-08-04 11:37:00,93.3,78.3,30.06,SW,221,1.0,4.0,62,0.00,,SCT034,0.01,828.00,VWS V14.01,2013-08-04 15:37:00,
2013-08-04 11:40:00,93.5,77.5,30.06,WSW,237,3.0,6.0,60,0.00,,SCT024TCU,0.01,837.00,VWS V14.01,2013-08-04 15:40:00,
2013-08-04 11:42:00,93.6,77.1,30.06,SW,226,1.0,5.0,59,0.00,,SCT034,0.01,821.00,VWS V14.01,2013-08-04 15:42:00,
2013-08-04 11:45:00,93.1,76.1,30.06,WSW,255,3.0,7.0,58,0.00,,SCT024TCU,0.01,826.00,VWS V14.01,2013-08-04 15:45:00,
2013-08-04 11:47:00,93.0,76.6,30.06,WSW,255,1.0,3.0,59,0.00,,SCT034,0.01,830.00,VWS V14.01,2013-08-04 15:47:00,
2013-08-04 11:50:00,92.6,76.7,30.06,West,277,8.0,8.0,60,0.00,,SCT024TCU,0.01,840.00,VWS V14.01,2013-08-04 15:50:00,
2013-08-04 11:52:00,92.2,75.8,30.06,West,270,2.0,8.0,59,0.00,,SCT034,0.01,840.00,VWS V14.01,2013-08-04 15:52:00,
2013-08-04 11:55:00,92.0,76.6,30.05,SW,221,4.0,8.0,61,0.00,,SCT024TCU,0.01,838.00,VWS V14.01,2013-08-04 15:55:00,
2013-08-04 11:57:00,92.0,76.1,30.05,WSW,239,2.0,5.0,60,0.00,,SCT034,0.01,840.00,VWS V14.01,2013-08-04 15:57:00,
2013-08-04 12:00:00,92.2,76.8,30.05,SSW,207,2.0,7.0,61,0.00,,SCT024TCU,0.01,844.00,VWS V14.01,2013-08-04 16:00:00,
2013-08-04 12:02:00,92.5,77.1,30.05,SSW,202,0.0,4.0,61,0.00,,SCT034,0.01,854.00,VWS V14.01,2013-08-04 16:02:00,
2013-08-04 12:05:00,93.5,77.5,30.06,SSW,202,1.0,4.0,60,0.00,,SCT024TCU,0.01,870.00,VWS V14.01,2013-08-04 16:05:00,
2013-08-04 12:07:00,93.9,77.9,30.05,SW,229,1.0,4.0,60,0.00,,SCT034,0.01,881.00,VWS V14.01,2013-08-04 16:07:00,
2013-08-04 12:10:00,94.8,78.2,30.05,SW,219,3.0,7.0,59,0.00,,SCT024TCU,0.01,875.00,VWS V14.01,2013-08-04 16:10:00,
2013-08-04 12:12:00,95.1,78.5,30.05,SW,217,2.0,4.0,59,0.00,,SCT034,0.01,877.00,VWS V14.01,2013-08-04 16:12:00,
2013-08-04 12:15:00,95.6,78.5,30.05,SW,221,2.0,4.0,58,0.00,,SCT024TCU,0.01,895.00,VWS V14.01,2013-08-04 16:15:00,
2013-08-04 12:17:00,95.7,78.6,30.05,South,180,5.0,10.0,58,0.00,,SCT034,0.01,916.00,VWS V14.01,2013-08-04 16:17:00,
2013-08-04 12:20:00,96.0,78.3,30.05,SSW,192,6.0,10.0,57,0.00,,SCT024TCU,0.01,751.00,VWS V14.01,2013-08-04 16:20:00,
2013-08-04 12:22:00,96.0,77.8,30.05,SW,217,4.0,10.0,56,0.00,,SCT034,0.01,751.00,VWS V14.01,2013-08-04 16:22:00,
2013-08-04 12:25:00,95.9,77.7,30.05,SSW,213,0.0,10.0,56,0.00,,SCT024TCU,0.01,860.00,VWS V14.01,2013-08-04 16:25:00,
2013-08-04 12:27:00,96.0,77.2,30.05,SSW,213,0.0,4.0,55,0.00,,SCT034,0.01,860.00,VWS V14.01,2013-08-04 16:27:00,
2013-08-04 12:30:00,96.0,76.7,30.04,South,182,2.0,10.0,54,0.00,,SCT024TCU,0.01,853.00,VWS V14.01,2013-08-04 16:30:00,
2013-08-04 12:32:00,95.9,77.1,30.04,SSW,192,9.0,9.0,55,0.00,,SCT034,0.01,849.00,VWS V14.01,2013-08-04 16:32:00,
2013-08-04 12:35:00,95.9,77.1,30.04,SSW,212,1.0,9.0,55,0.00,,SCT024TCU,0.01,847.00,VWS V14.01,2013-08-04 16:35:00,
2013-08-04 12:37:00,96.0,77.2,30.04,South,171,5.0,9.0,55,0.00,,SCT034,0.01,853.00,VWS V14.01,2013-08-04 16:37:00,
2013-08-04 12:40:00,96.0,76.7,30.04,South,182,2.0,10.0,54,0.00,,SCT024TCU,0.01,888.00,VWS V14.01,2013-08-04 16:40:00,
2013-08-04 12:42:00,96.0,76.1,30.04,South,169,3.0,6.0,53,0.00,,SCT034,0.01,888.00,VWS V14.01,2013-08-04 16:42:00,
2013-08-04 12:45:00,95.8,75.9,30.03,South,186,6.0,6.0,53,0.00,,SCT024TCU,0.01,853.00,VWS V14.01,2013-08-04 16:45:00,
2013-08-04 12:47:00,95.8,75.9,30.03,SSW,210,1.0,6.0,53,0.00,,SCT034,0.01,853.00,VWS V14.01,2013-08-04 16:47:00,
2013-08-04 12:50:00,96.2,76.9,30.04,SSW,202,4.0,6.0,54,0.00,,SCT024TCU,0.01,856.00,VWS V14.01,2013-08-04 16:50:00,
2013-08-04 12:52:00,96.2,75.7,30.03,South,170,4.0,7.0,52,0.00,,SCT034,0.01,858.00,VWS V14.01,2013-08-04 16:52:00,
2013-08-04 12:55:00,96.2,76.3,30.04,SSW,207,0.0,7.0,53,0.00,,SCT024TCU,0.01,856.00,VWS V14.01,2013-08-04 16:55:00,
2013-08-04 12:57:00,96.3,75.8,30.03,SW,225,0.0,5.0,52,0.00,,SCT034,0.01,858.00,VWS V14.01,2013-08-04 16:57:00,
2013-08-04 13:00:00,96.4,75.3,30.03,South,175,5.0,7.0,51,0.00,,SCT024TCU,0.01,861.00,VWS V14.01,2013-08-04 17:00:00,
2013-08-04 13:02:00,96.4,75.3,30.03,South,189,6.0,6.0,51,0.00,,SCT034,0.01,860.00,VWS V14.01,2013-08-04 17:02:00,
2013-08-04 13:05:00,96.3,75.2,30.03,SW,223,1.0,7.0,51,0.00,,SCT024TCU,0.01,863.00,VWS V14.01,2013-08-04 17:05:00,
2013-08-04 13:07:00,96.3,75.2,30.03,SW,218,2.0,4.0,51,0.00,,SCT034,0.01,863.00,VWS V14.01,2013-08-04 17:07:00,
2013-08-04 13:10:00,96.4,74.7,30.03,SW,219,1.0,6.0,50,0.00,,SCT024TCU,0.01,865.00,VWS V14.01,2013-08-04 17:10:00,
2013-08-04 13:12:00,96.6,75.5,30.03,SW,221,2.0,4.0,51,0.00,,SCT034,0.01,867.00,VWS V14.01,2013-08-04 17:12:00,
2013-08-04 13:15:00,96.8,75.7,30.03,SW,220,3.0,5.0,51,0.00,,SCT024TCU,0.01,867.00,VWS V14.01,2013-08-04 17:15:00,
2013-08-04 13:17:00,96.8,75.1,30.03,SSW,201,3.0,6.0,50,0.00,,SCT034,0.01,867.00,VWS V14.01,2013-08-04 17:17:00,
2013-08-04 13:20:00,97.1,76.0,30.02,SW,219,2.0,6.0,51,0.00,,SCT024TCU,0.01,868.00,VWS V14.01,2013-08-04 17:20:00,
2013-08-04 13:22:00,97.2,74.9,30.02,WSW,256,2.0,6.0,49,0.00,,SCT034,0.01,865.00,VWS V14.01,2013-08-04 17:22:00,
2013-08-04 13:25:00,96.8,74.5,30.02,SW,225,4.0,7.0,49,0.00,,SCT024TCU,0.01,867.00,VWS V14.01,2013-08-04 17:25:00,
2013-08-04 13:27:00,96.7,75.6,30.03,SW,229,2.0,6.0,51,0.00,,SCT034,0.01,867.00,VWS V14.01,2013-08-04 17:27:00,
2013-08-04 13:30:00,96.4,74.7,30.03,West,267,1.0,7.0,50,0.00,,SCT024TCU,0.01,860.00,VWS V14.01,2013-08-04 17:30:00,
2013-08-04 13:32:00,96.4,75.3,30.02,West,262,3.0,3.0,51,0.00,,SCT034,0.01,863.00,VWS V14.01,2013-08-04 17:32:00,
2013-08-04 13:35:00,96.4,74.7,30.02,SW,232,0.0,7.0,50,0.00,,SCT024TCU,0.01,867.00,VWS V14.01,2013-08-04 17:35:00,
2013-08-04 13:37:00,96.5,75.4,30.02,SW,214,3.0,5.0,51,0.00,,SCT034,0.01,865.00,VWS V14.01,2013-08-04 17:37:00,
2013-08-04 13:40:00,96.6,74.9,30.02,SW,223,5.0,7.0,50,0.00,,SCT024TCU,0.01,867.00,VWS V14.01,2013-08-04 17:40:00,
2013-08-04 13:42:00,96.7,75.0,30.02,SW,223,0.0,5.0,50,0.00,,SCT034,0.01,865.00,VWS V14.01,2013-08-04 17:42:00,
2013-08-04 13:45:00,97.0,74.7,30.02,SW,224,1.0,5.0,49,0.00,,SCT024TCU,0.01,865.00,VWS V14.01,2013-08-04 17:45:00,
2013-08-04 13:47:00,97.2,74.9,30.02,SW,215,0.0,7.0,49,0.00,,SCT034,0.01,863.00,VWS V14.01,2013-08-04 17:47:00,
2013-08-04 13:50:00,97.4,75.1,30.01,SW,230,0.0,7.0,49,0.00,,SCT024TCU,0.01,861.00,VWS V14.01,2013-08-04 17:50:00,
2013-08-04 13:52:00,97.5,75.1,30.01,SSW,206,1.0,5.0,49,0.00,,SCT034,0.01,865.00,VWS V14.01,2013-08-04 17:52:00,
2013-08-04 13:55:00,97.3,73.7,30.01,WSW,250,7.0,10.0,47,0.00,,SCT024TCU,0.01,863.00,VWS V14.01,2013-08-04 17:55:00,
2013-08-04 13:57:00,96.8,73.3,30.01,WSW,250,0.0,7.0,47,0.00,,SCT034,0.01,854.00,VWS V14.01,2013-08-04 17:57:00,
2013-08-04 14:00:00,96.3,75.2,30.01,SW,222,2.0,9.0,51,0.00,,SCT024TCU,0.01,856.00,VWS V14.01,2013-08-04 18:00:00,
2013-08-04 14:02:00,96.3,74.7,30.01,SW,236,3.0,5.0,50,0.00,,SCT034,0.01,854.00,VWS V14.01,2013-08-04 18:02:00,
2013-08-04 14:05:00,96.5,75.4,30.01,SSW,201,0.0,10.0,51,0.00,,SCT024TCU,0.01,863.00,VWS V14.01,2013-08-04 18:05:00,
2013-08-04 14:07:00,96.5,74.8,30.01,SSE,149,1.0,4.0,50,0.00,,SCT030,0.01,865.00,VWS V14.01,2013-08-04 18:07:00,
2013-08-04 14:10:00,96.7,75.6,30.01,SSE,160,1.0,4.0,51,0.00,,SCT024TCU,0.01,858.00,VWS V14.01,2013-08-04 18:10:00,
2013-08-04 14:12:00,96.8,75.1,30.01,SSE,155,5.0,5.0,50,0.00,,SCT030,0.01,858.00,VWS V14.01,2013-08-04 18:12:00,
2013-08-04 14:15:00,97.1,76.0,30.01,WSW,242,2.0,6.0,51,0.00,,SCT024TCU,0.01,870.00,VWS V14.01,2013-08-04 18:15:00,
2013-08-04 14:17:00,97.2,76.1,30.00,South,183,1.0,4.0,51,0.00,,SCT030,0.01,867.00,VWS V14.01,2013-08-04 18:17:00,
2013-08-04 14:20:00,97.5,75.8,30.00,SW,221,5.0,11.0,50,0.00,,SCT024TCU,0.01,860.00,VWS V14.01,2013-08-04 18:20:00,
2013-08-04 14:22:00,97.5,75.7,30.00,SW,226,3.0,7.0,50,0.00,,SCT030,0.01,847.00,VWS V14.01,2013-08-04 18:22:00,
2013-08-04 14:25:00,97.1,75.4,30.00,SSW,202,4.0,8.0,50,0.00,,SCT024TCU,0.01,842.00,VWS V14.01,2013-08-04 18:25:00,
2013-08-04 14:27:00,97.0,75.3,30.00,SSW,198,2.0,5.0,50,0.00,,SCT030,0.01,838.00,VWS V14.01,2013-08-04 18:27:00,
2013-08-04 14:30:00,97.1,75.4,30.00,SSW,197,2.0,5.0,50,0.00,,SCT024TCU,0.01,837.00,VWS V14.01,2013-08-04 18:30:00,
2013-08-04 14:32:00,97.2,75.5,30.00,SSW,193,1.0,7.0,50,0.00,,SCT030,0.01,833.00,VWS V14.01,2013-08-04 18:32:00,
2013-08-04 14:35:00,97.4,76.2,30.00,SSE,156,0.0,7.0,51,0.00,,SCT024TCU,0.01,830.00,VWS V14.01,2013-08-04 18:35:00,
2013-08-04 14:37:00,97.6,75.2,30.00,SW,221,1.0,3.0,49,0.00,,SCT030,0.01,830.00,VWS V14.01,2013-08-04 18:37:00,
2013-08-04 14:40:00,97.9,75.5,30.00,SW,227,5.0,10.0,49,0.00,,SCT024TCU,0.01,830.00,VWS V14.01,2013-08-04 18:40:00,
2013-08-04 14:42:00,97.9,74.9,29.99,SW,223,3.0,7.0,48,0.00,,SCT030,0.01,828.00,VWS V14.01,2013-08-04 18:42:00,
2013-08-04 14:45:00,98.0,75.6,29.99,SW,217,1.0,7.0,49,0.00,,SCT024TCU,0.01,819.00,VWS V14.01,2013-08-04 18:45:00,
2013-08-04 14:47:00,98.1,75.1,29.99,SSW,198,3.0,5.0,48,0.00,,SCT030,0.01,816.00,VWS V14.01,2013-08-04 18:47:00,
2013-08-04 14:50:00,98.2,75.8,29.99,SW,217,4.0,6.0,49,0.00,,SCT024TCU,0.01,809.00,VWS V14.01,2013-08-04 18:50:00,
2013-08-04 14:52:00,98.2,75.2,29.99,SSW,213,5.0,10.0,48,0.00,,SCT030,0.01,807.00,VWS V14.01,2013-08-04 18:52:00,
2013-08-04 14:55:00,98.0,74.3,29.98,West,281,5.0,10.0,47,0.00,,SCT024TCU,0.01,802.00,VWS V14.01,2013-08-04 18:55:00,
2013-08-04 14:57:00,97.5,73.9,29.98,WNW,284,2.0,5.0,47,0.00,,SCT030,0.01,798.00,VWS V14.01,2013-08-04 18:57:00,
2013-08-04 15:00:00,97.1,75.4,29.98,WSW,250,4.0,5.0,50,0.00,,SCT024TCU,0.01,795.00,VWS V14.01,2013-08-04 19:00:00,
2013-08-04 15:02:00,97.0,75.3,29.98,SSW,204,3.0,6.0,50,0.00,,FEW030,0.01,793.00,VWS V14.01,2013-08-04 19:02:00,
2013-08-04 15:05:00,97.1,75.4,29.98,SW,217,2.0,9.0,50,0.00,,SCT024TCU,0.01,791.00,VWS V14.01,2013-08-04 19:05:00,
2013-08-04 15:07:00,97.2,76.1,29.98,SW,236,2.0,5.0,51,0.00,,FEW030,0.01,789.00,VWS V14.01,2013-08-04 19:07:00,
2013-08-04 15:10:00,97.4,75.7,29.98,SSW,201,0.0,7.0,50,0.00,,SCT024TCU,0.01,782.00,VWS V14.01,2013-08-04 19:10:00,
2013-08-04 15:12:00,97.5,75.7,29.98,SSE,150,5.0,6.0,50,0.00,,FEW030,0.01,779.00,VWS V14.01,2013-08-04 19:12:00,
2013-08-04 15:15:00,97.7,75.9,29.97,West,271,4.0,6.0,50,0.00,,SCT024TCU,0.01,773.00,VWS V14.01,2013-08-04 19:15:00,
2013-08-04 15:17:00,97.7,75.9,29.97,WSW,257,1.0,6.0,50,0.00,,FEW030,0.01,770.00,VWS V14.01,2013-08-04 19:17:00,
2013-08-04 15:20:00,97.7,75.3,29.97,West,265,0.0,6.0,49,0.00,,SCT024TCU,0.01,772.00,VWS V14.01,2013-08-04 19:20:00,
2013-08-04 15:22:00,97.7,75.3,29.97,SSW,194,6.0,7.0,49,0.00,,FEW030,0.01,768.00,VWS V14.01,2013-08-04 19:22:00,
2013-08-04 15:25:00,97.6,75.8,29.97,SW,217,1.0,7.0,50,0.00,,SCT024TCU,0.01,761.00,VWS V14.01,2013-08-04 19:25:00,
2013-08-04 15:27:00,97.6,75.2,29.97,South,191,2.0,4.0,49,0.00,,FEW030,0.01,761.00,VWS V14.01,2013-08-04 19:27:00,
2013-08-04 15:30:00,97.5,75.8,29.97,South,187,3.0,4.0,50,0.00,,SCT024TCU,0.01,749.00,VWS V14.01,2013-08-04 19:30:00,
2013-08-04 15:32:00,97.7,75.9,29.97,WSW,250,5.0,5.0,50,0.00,,FEW030,0.01,749.00,VWS V14.01,2013-08-04 19:32:00,
2013-08-04 15:35:00,97.7,75.9,29.97,SW,219,0.0,10.0,50,0.00,,SCT024TCU,0.01,747.00,VWS V14.01,2013-08-04 19:35:00,
2013-08-04 15:37:00,97.8,76.0,29.97,WSW,248,3.0,7.0,50,0.00,,FEW030,0.01,747.00,VWS V14.01,2013-08-04 19:37:00,
2013-08-04 15:40:00,97.9,76.7,29.97,WSW,242,2.0,7.0,51,0.00,,SCT024TCU,0.01,733.00,VWS V14.01,2013-08-04 19:40:00,
2013-08-04 15:42:00,97.9,75.5,29.97,WSW,241,5.0,9.0,49,0.00,,FEW030,0.01,728.00,VWS V14.01,2013-08-04 19:42:00,
2013-08-04 15:45:00,97.8,76.0,29.97,SW,234,3.0,9.0,50,0.00,,SCT024TCU,0.01,724.00,VWS V14.01,2013-08-04 19:45:00,
2013-08-04 15:47:00,97.9,76.1,29.96,SSW,213,1.0,8.0,50,0.00,,FEW030,0.01,721.00,VWS V14.01,2013-08-04 19:47:00,
2013-08-04 15:50:00,97.9,75.5,29.96,SW,236,1.0,8.0,49,0.00,,SCT024TCU,0.01,712.00,VWS V14.01,2013-08-04 19:50:00,
2013-08-04 15:52:00,98.0,75.6,29.96,SSW,198,3.0,9.0,49,0.00,,FEW030,0.01,708.00,VWS V14.01,2013-08-04 19:52:00,
2013-08-04 15:55:00,98.1,75.7,29.96,SSW,203,1.0,9.0,49,0.00,,SCT024TCU,0.01,708.00,VWS V14.01,2013-08-04 19:55:00,
2013-08-04 15:57:00,98.1,75.7,29.96,SW,231,2.0,4.0,49,0.00,,FEW030,0.01,698.00,VWS V14.01,2013-08-04 19:57:00,
2013-08-04 16:00:00,98.1,75.7,29.96,South,184,1.0,7.0,49,0.00,,SCT024TCU,0.01,693.00,VWS V14.01,2013-08-04 20:00:00,
2013-08-04 16:02:00,98.2,76.4,29.96,SW,223,7.0,10.0,50,0.00,,FEW030,0.01,691.00,VWS V14.01,2013-08-04 20:02:00,
2013-08-04 16:05:00,98.1,76.3,29.96,SW,218,1.0,10.0,50,0.00,,SCT024TCU,0.01,684.00,VWS V14.01,2013-08-04 20:05:00,
2013-08-04 16:07:00,98.1,75.7,29.96,WSW,242,1.0,5.0,49,0.00,,FEW030,0.01,682.00,VWS V14.01,2013-08-04 20:07:00,
2013-08-04 16:10:00,98.2,75.2,29.96,SSW,211,7.0,7.0,48,0.00,,SCT024TCU,0.01,675.00,VWS V14.01,2013-08-04 20:10:00,
2013-08-04 16:12:00,98.2,75.8,29.96,SW,225,2.0,7.0,49,0.00,,FEW030,0.01,671.00,VWS V14.01,2013-08-04 20:12:00,
2013-08-04 16:15:00,98.2,76.4,29.96,SW,225,3.0,9.0,50,0.00,,SCT024TCU,0.01,670.00,VWS V14.01,2013-08-04 20:15:00,
2013-08-04 16:17:00,98.3,75.2,29.96,WSW,244,1.0,6.0,48,0.00,,FEW030,0.01,663.00,VWS V14.01,2013-08-04 20:17:00,
2013-08-04 16:20:00,98.3,75.9,29.96,SW,234,4.0,6.0,49,0.00,,SCT024TCU,0.01,635.00,VWS V14.01,2013-08-04 20:20:00,
2013-08-04 16:22:00,98.3,75.9,29.96,SSW,207,0.0,7.0,49,0.00,,FEW030,0.01,642.00,VWS V14.01,2013-08-04 20:22:00,
2013-08-04 16:25:00,98.5,75.4,29.96,SW,215,3.0,13.0,48,0.00,,SCT024TCU,0.01,626.00,VWS V14.01,2013-08-04 20:25:00,
2013-08-04 16:27:00,98.5,75.4,29.96,SSW,213,4.0,9.0,48,0.00,,FEW030,0.01,621.00,VWS V14.01,2013-08-04 20:27:00,
2013-08-04 16:30:00,98.4,76.0,29.96,SSW,210,2.0,9.0,49,0.00,,SCT024TCU,0.01,612.00,VWS V14.01,2013-08-04 20:30:00,
2013-08-04 16:32:00,98.4,76.6,29.96,South,183,3.0,5.0,50,0.00,,FEW030,0.01,594.00,VWS V14.01,2013-08-04 20:32:00,
2013-08-04 16:35:00,98.4,76.0,29.96,SSW,202,3.0,7.0,49,0.00,,SCT024TCU,0.01,580.00,VWS V14.01,2013-08-04 20:35:00,
2013-08-04 16:37:00,98.3,75.9,29.96,SW,223,1.0,5.0,49,0.00,,FEW030,0.01,584.00,VWS V14.01,2013-08-04 20:37:00,
2013-08-04 16:40:00,98.2,75.8,29.96,WNW,283,7.0,11.0,49,0.00,,SCT024TCU,0.01,561.00,VWS V14.01,2013-08-04 20:40:00,
2013-08-04 16:42:00,97.7,75.9,29.96,West,270,3.0,9.0,50,0.00,,SCT030CU,0.01,587.00,VWS V14.01,2013-08-04 20:42:00,
2013-08-04 16:45:00,97.0,75.9,29.96,SW,232,2.0,9.0,51,0.00,,SCT024TCU,0.01,550.00,VWS V14.01,2013-08-04 20:45:00,
2013-08-04 16:47:00,96.9,76.4,29.96,SSW,194,5.0,9.0,52,0.00,,SCT030CU,0.01,555.00,VWS V14.01,2013-08-04 20:47:00,
2013-08-04 16:50:00,96.8,76.3,29.96,SW,234,6.0,9.0,52,0.00,,SCT024TCU,0.01,547.00,VWS V14.01,2013-08-04 20:50:00,
2013-08-04 16:52:00,96.7,76.2,29.96,SW,221,7.0,7.0,52,0.00,,SCT030CU,0.01,557.00,VWS V14.01,2013-08-04 20:52:00,
2013-08-04 16:55:00,96.6,76.1,29.96,WSW,238,0.0,9.0,52,0.00,,SCT024TCU,0.01,200.00,VWS V14.01,2013-08-04 20:55:00,
2013-08-04 16:57:00,96.5,76.0,29.96,WSW,238,3.0,5.0,52,0.00,,SCT060,0.01,443.00,VWS V14.01,2013-08-04 20:57:00,
2013-08-04 17:00:00,96.3,77.0,29.96,West,276,7.0,11.0,54,0.00,,SCT024TCU,0.01,390.00,VWS V14.01,2013-08-04 21:00:00,
2013-08-04 17:02:00,96.0,77.2,29.96,SW,231,1.0,10.0,55,0.00,,SCT060,0.01,378.00,VWS V14.01,2013-08-04 21:02:00,
2013-08-04 17:05:00,95.3,77.7,29.96,WSW,257,14.0,14.0,57,0.00,,SCT024TCU,0.01,230.00,VWS V14.01,2013-08-04 21:05:00,
2013-08-04 17:07:00,94.5,77.4,29.96,West,263,4.0,14.0,58,0.00,,SCT060,0.01,424.00,VWS V14.01,2013-08-04 21:07:00,
2013-08-04 17:10:00,93.3,77.3,29.96,West,273,6.0,14.0,60,0.00,,SCT024TCU,0.01,113.00,VWS V14.01,2013-08-04 21:10:00,
2013-08-04 17:12:00,92.6,77.2,29.96,WSW,250,5.0,10.0,61,0.00,,SCT060,0.01,113.00,VWS V14.01,2013-08-04 21:12:00,
2013-08-04 17:15:00,91.5,76.7,29.96,West,279,5.0,11.0,62,0.00,,SCT024TCU,0.01,109.00,VWS V14.01,2013-08-04 21:15:00,
2013-08-04 17:17:00,91.1,77.2,29.96,WNW,284,0.0,8.0,64,0.00,,SCT060,0.01,104.00,VWS V14.01,2013-08-04 21:17:00,
2013-08-04 17:20:00,90.5,76.7,29.96,West,264,2.0,9.0,64,0.00,,SCT024TCU,0.01,90.00,VWS V14.01,2013-08-04 21:20:00,
2013-08-04 17:22:00,90.3,76.9,29.95,WSW,243,1.0,5.0,65,0.00,,SCT060,0.01,81.00,VWS V14.01,2013-08-04 21:22:00,
2013-08-04 17:25:00,90.1,76.8,29.96,WNW,288,6.0,8.0,65,0.00,,SCT024TCU,0.01,63.00,VWS V14.01,2013-08-04 21:25:00,
2013-08-04 17:27:00,89.7,76.8,29.97,NNW,341,14.0,18.0,66,0.00,,SCT060,0.01,47.00,VWS V14.01,2013-08-04 21:27:00,
2013-08-04 17:30:00,88.0,74.3,29.98,WNW,298,6.0,18.0,64,0.00,,SCT024TCU,0.01,23.00,VWS V14.01,2013-08-04 21:30:00,
2013-08-04 17:32:00,86.9,74.2,29.98,NNW,333,14.0,14.0,66,0.00,,SCT060,0.01,25.00,VWS V14.01,2013-08-04 21:32:00,
2013-08-04 17:35:00,85.5,73.7,29.97,NNW,347,8.0,14.0,68,0.00,,SCT024TCU,0.01,28.00,VWS V14.01,2013-08-04 21:35:00,
2013-08-04 17:37:00,85.0,73.3,29.98,NNW,330,7.0,12.0,68,0.00,,SCT060,0.01,30.00,VWS V14.01,2013-08-04 21:37:00,
2013-08-04 17:40:00,84.3,73.0,29.98,NW,306,3.0,12.0,69,0.00,,SCT024TCU,0.01,30.00,VWS V14.01,2013-08-04 21:40:00,
2013-08-04 17:42:00,84.0,73.2,29.98,WNW,298,5.0,6.0,70,0.00,,SCT060,0.01,28.00,VWS V14.01,2013-08-04 21:42:00,
2013-08-04 17:45:00,83.8,73.4,29.99,North,350,8.0,10.0,71,0.00,,SCT024TCU,0.01,26.00,VWS V14.01,2013-08-04 21:45:00,
2013-08-04 17:47:00,83.6,73.2,29.99,NNW,348,4.0,11.0,71,0.00,,SCT060,0.01,25.00,VWS V14.01,2013-08-04 21:47:00,
2013-08-04 17:49:00,83.4,73.4,29.98,North,5,5.0,11.0,72,0.00,,SCT060,0.01,25.00,VWS V14.01,2013-08-04 21:49:00,
2013-08-04 17:50:00,83.3,73.3,29.98,NW,325,6.0,11.0,72,0.00,,SCT024TCU,0.01,23.00,VWS V14.01,2013-08-04 21:50:00,
2013-08-04 17:54:00,83.2,73.7,29.97,North,355,4.0,7.0,73,0.00,,SCT060,0.01,19.00,VWS V14.01,2013-08-04 21:54:00,
2013-08-04 17:55:00,83.1,74.0,29.97,NNE,19,9.0,10.0,74,0.00,,SCT024TCU,0.01,19.00,VWS V14.01,2013-08-04 21:55:00,
2013-08-04 17:59:00,83.0,73.9,29.98,North,360,8.0,10.0,74,0.00,,OVC150,0.01,18.00,VWS V14.01,2013-08-04 21:59:00,
2013-08-04 18:00:00,82.9,73.8,29.98,NW,319,7.0,10.0,74,0.00,,SCT024TCU,0.01,16.00,VWS V14.01,2013-08-04 22:00:00,
2013-08-04 18:04:00,82.8,74.1,29.98,NNW,328,4.0,11.0,75,0.00,,OVC150,0.01,14.00,VWS V14.01,2013-08-04 22:04:00,
2013-08-04 18:05:00,82.8,74.1,29.98,NNW,327,9.0,11.0,75,0.00,,SCT024TCU,0.01,14.00,VWS V14.01,2013-08-04 22:05:00,
2013-08-04 18:09:00,82.8,74.5,29.99,NNW,329,4.0,10.0,76,0.00,,OVC150,0.01,12.00,VWS V14.01,2013-08-04 22:09:00,
2013-08-04 18:10:00,82.8,74.9,29.99,North,9,6.0,10.0,77,0.00,,SCT024TCU,0.01,12.00,VWS V14.01,2013-08-04 22:10:00,
2013-08-04 18:13:00,82.6,75.1,29.99,NNW,346,4.0,10.0,78,0.00,,OVC150,0.01,11.00,VWS V14.01,2013-08-04 22:13:00,
2013-08-04 18:15:00,82.5,74.9,30.00,NNW,338,6.0,10.0,78,0.00,,SCT024TCU,0.01,9.00,VWS V14.01,2013-08-04 22:15:00,
2013-08-04 18:19:00,82.2,74.7,30.00,NNW,345,6.0,9.0,78,0.00,,OVC150,0.01,5.00,VWS V14.01,2013-08-04 22:19:00,
2013-08-04 18:20:00,82.1,74.6,30.00,North,350,2.0,9.0,78,0.00,,SCT024TCU,0.01,5.00,VWS V14.01,2013-08-04 22:20:00,
2013-08-04 18:24:00,81.8,74.3,29.99,West,276,4.0,7.0,78,0.00,,OVC150,0.01,5.00,VWS V14.01,2013-08-04 22:24:00,
2013-08-04 18:25:00,81.7,74.2,29.99,North,9,4.0,7.0,78,0.00,,SCT024TCU,0.01,7.00,VWS V14.01,2013-08-04 22:25:00,
2013-08-04 18:29:00,81.6,74.5,29.99,North,360,0.0,4.0,79,0.00,,OVC150,0.01,7.00,VWS V14.01,2013-08-04 22:29:00,
2013-08-04 18:30:00,81.5,74.4,29.99,NNW,340,2.0,5.0,79,0.00,,SCT024TCU,0.01,7.00,VWS V14.01,2013-08-04 22:30:00,
2013-08-04 18:34:00,81.4,74.3,30.00,NNW,340,1.0,4.0,79,0.00,,OVC150,0.01,9.00,VWS V14.01,2013-08-04 22:34:00,
2013-08-04 18:35:00,81.4,74.3,30.00,NNW,340,1.0,4.0,79,0.00,,SCT024TCU,0.01,9.00,VWS V14.01,2013-08-04 22:35:00,
2013-08-04 18:39:00,81.4,74.3,30.00,NNW,339,0.0,3.0,79,0.00,,OVC150,0.01,9.00,VWS V14.01,2013-08-04 22:39:00,
2013-08-04 18:40:00,81.4,73.9,30.00,NNW,338,1.0,3.0,78,0.00,,SCT024TCU,0.01,9.00,VWS V14.01,2013-08-04 22:40:00,
2013-08-04 18:44:00,81.3,73.8,30.01,NNW,338,0.0,1.0,78,0.00,,OVC150,0.01,9.00,VWS V14.01,2013-08-04 22:44:00,
2013-08-04 18:45:00,81.3,73.8,30.01,NNW,338,0.0,2.0,78,0.00,,SCT024TCU,0.01,7.00,VWS V14.01,2013-08-04 22:45:00,
2013-08-04 18:49:00,81.3,73.4,30.01,NNW,338,0.0,1.0,77,0.00,,OVC150,0.01,7.00,VWS V14.01,2013-08-04 22:49:00,
2013-08-04 18:50:00,81.3,73.4,30.01,NNW,338,0.0,1.0,77,0.00,,SCT024TCU,0.01,7.00,VWS V14.01,2013-08-04 22:50:00,
2013-08-04 18:54:00,81.4,73.5,30.00,NNW,338,0.0,1.0,77,0.00,,OVC150,0.01,7.00,VWS V14.01,2013-08-04 22:54:00,
2013-08-04 18:55:00,81.4,73.5,30.00,NNW,338,1.0,3.0,77,0.00,,SCT024TCU,0.01,7.00,VWS V14.01,2013-08-04 22:55:00,
2013-08-04 18:59:00,81.3,73.0,30.00,NNW,338,0.0,2.0,76,0.00,,OVC150,0.01,7.00,VWS V14.01,2013-08-04 22:59:00,
2013-08-04 19:00:00,81.3,73.0,30.00,NNW,338,0.0,2.0,76,0.00,,SCT024TCU,0.01,7.00,VWS V14.01,2013-08-04 23:00:00,
2013-08-04 19:03:00,81.4,73.5,30.00,NNW,338,0.0,3.0,77,0.00,,OVC150,0.01,7.00,VWS V14.01,2013-08-04 23:03:00,
2013-08-04 19:05:00,81.4,73.5,30.00,NNW,338,1.0,3.0,77,0.00,,SCT024TCU,0.01,7.00,VWS V14.01,2013-08-04 23:05:00,
2013-08-04 19:09:00,81.4,73.5,30.00,NNW,338,4.0,4.0,77,0.00,,OVC150,0.01,7.00,VWS V14.01,2013-08-04 23:09:00,
2013-08-04 19:10:00,81.4,73.5,30.00,NNW,338,1.0,4.0,77,0.00,,SCT024TCU,0.01,7.00,VWS V14.01,2013-08-04 23:10:00,
2013-08-04 19:14:00,81.4,73.5,29.99,NNW,338,2.0,5.0,77,0.00,,OVC150,0.01,7.00,VWS V14.01,2013-08-04 23:14:00,
2013-08-04 19:15:00,81.4,73.9,29.99,NNW,338,1.0,5.0,78,0.00,,SCT024TCU,0.01,7.00,VWS V14.01,2013-08-04 23:15:00,
2013-08-04 19:18:00,81.4,74.3,29.99,NNW,338,2.0,3.0,79,0.00,,OVC150,0.01,7.00,VWS V14.01,2013-08-04 23:18:00,
2013-08-04 19:20:00,81.4,74.3,29.99,NNW,338,5.0,5.0,79,0.00,,SCT024TCU,0.01,7.00,VWS V14.01,2013-08-04 23:20:00,
2013-08-04 19:24:00,81.2,74.1,29.99,NNW,338,0.0,5.0,79,0.00,,OVC150,0.01,9.00,VWS V14.01,2013-08-04 23:24:00,
2013-08-04 19:25:00,81.2,74.1,29.99,NNW,338,2.0,5.0,79,0.00,,SCT024TCU,0.01,9.00,VWS V14.01,2013-08-04 23:25:00,
2013-08-04 19:29:00,81.2,74.4,30.00,NNW,338,0.0,3.0,80,0.00,,OVC150,0.01,7.00,VWS V14.01,2013-08-04 23:29:00,
2013-08-04 19:30:00,81.1,74.3,30.00,NNW,338,0.0,3.0,80,0.00,,SCT024TCU,0.01,7.00,VWS V14.01,2013-08-04 23:30:00,
2013-08-04 19:34:00,81.0,74.2,30.00,NNW,338,0.0,1.0,80,0.00,,OVC150,0.01,5.00,VWS V14.01,2013-08-04 23:34:00,
2013-08-04 19:35:00,80.9,74.2,30.00,NNW,338,0.0,1.0,80,0.00,,SCT024TCU,0.01,5.00,VWS V14.01,2013-08-04 23:35:00,
2013-08-04 19:39:00,80.9,74.2,30.00,NNW,339,2.0,3.0,80,0.00,,OVC150,0.01,5.00,VWS V14.01,2013-08-04 23:39:00,
2013-08-04 19:40:00,80.8,74.1,30.00,NNW,339,0.0,3.0,80,0.00,,SCT024TCU,0.01,5.00,VWS V14.01,2013-08-04 23:40:00,
2013-08-04 19:44:00,80.8,74.1,30.00,NNW,338,0.0,3.0,80,0.00,,OVC150,0.01,0.00,VWS V14.01,2013-08-04 23:44:00,
2013-08-04 19:45:00,80.8,74.1,30.00,NNW,339,0.0,3.0,80,0.00,,SCT024TCU,0.01,0.00,VWS V14.01,2013-08-04 23:45:00,
2013-08-04 19:49:00,80.8,74.1,30.00,NNW,338,0.0,3.0,80,0.00,,OVC150,0.01,0.00,VWS V14.01,2013-08-04 23:49:00,
2013-08-04 19:50:00,80.8,74.1,30.00,NNW,339,1.0,3.0,80,0.00,,SCT024TCU,0.01,0.00,VWS V14.01,2013-08-04 23:50:00,
2013-08-04 19:54:00,80.9,74.2,30.00,NNW,339,0.0,2.0,80,0.00,,OVC150,0.01,0.00,VWS V14.01,2013-08-04 23:54:00,
2013-08-04 19:55:00,80.9,74.2,30.00,NNW,339,1.0,2.0,80,0.00,,SCT024TCU,0.01,0.00,VWS V14.01,2013-08-04 23:55:00,
2013-08-04 19:59:00,80.9,74.2,30.00,ESE,107,2.0,3.0,80,0.00,,OVC150,0.01,0.00,VWS V14.01,2013-08-04 23:59:00,
2013-08-04 20:00:00,81.0,74.2,30.00,ESE,111,1.0,4.0,80,0.00,,SCT024TCU,0.01,0.00,VWS V14.01,2013-08-05 00:00:00,
2013-08-04 20:03:00,81.0,74.2,29.99,ESE,110,0.0,2.0,80,0.00,,-RA,0.01,0.00,VWS V14.01,2013-08-05 00:03:00,
2013-08-04 20:05:00,81.0,74.2,29.99,ESE,111,2.0,4.0,80,0.00,,SCT024TCU,0.01,0.00,VWS V14.01,2013-08-05 00:05:00,
2013-08-04 20:09:00,81.0,74.2,29.99,ESE,111,0.0,2.0,80,0.00,,-RA,0.01,0.00,VWS V14.01,2013-08-05 00:09:00,
2013-08-04 20:10:00,81.1,74.3,29.99,ESE,112,0.0,2.0,80,0.00,,SCT024TCU,0.01,0.00,VWS V14.01,2013-08-05 00:10:00,
2013-08-04 20:15:00,81.1,74.0,29.99,ESE,112,0.0,1.0,79,0.00,,SCT024TCU,0.01,0.00,VWS V14.01,2013-08-05 00:15:00,
2013-08-04 20:20:00,81.1,74.3,29.99,ESE,112,0.0,1.0,80,0.00,,SCT024TCU,0.01,0.00,VWS V14.01,2013-08-05 00:20:00,
2013-08-04 20:25:00,81.1,74.0,29.99,ESE,112,0.0,1.0,79,0.00,,SCT024TCU,0.01,0.00,VWS V14.01,2013-08-05 00:25:00,
2013-08-04 20:30:00,81.1,74.0,30.00,ESE,112,0.0,1.0,79,0.00,,SCT024TCU,0.01,0.00,VWS V14.01,2013-08-05 00:30:00,
2013-08-04 20:35:00,81.1,74.3,29.99,ESE,112,0.0,1.0,80,0.00,,SCT024TCU,0.01,0.00,VWS V14.01,2013-08-05 00:35:00,
2013-08-04 20:40:00,81.2,74.4,30.00,ESE,112,0.0,1.0,80,0.00,,SCT024TCU,0.01,0.00,VWS V14.01,2013-08-05 00:40:00,
2013-08-04 20:45:00,81.2,74.4,30.00,ESE,112,1.0,3.0,80,0.00,,SCT024TCU,0.01,0.00,VWS V14.01,2013-08-05 00:45:00,
2013-08-04 20:50:00,81.3,74.9,30.00,ESE,112,1.0,3.0,81,0.00,,SCT024TCU,0.01,0.00,VWS V14.01,2013-08-05 00:50:00,
2013-08-04 20:55:00,81.3,75.3,30.01,ESE,112,1.0,4.0,82,0.00,,SCT024TCU,0.01,0.00,VWS V14.01,2013-08-05 00:55:00,
2013-08-04 21:00:00,81.1,74.7,30.01,ESE,112,2.0,4.0,81,0.00,,SCT024TCU,0.01,0.00,VWS V14.01,2013-08-05 01:00:00,
2013-08-04 21:05:00,80.9,74.9,30.02,SSE,158,0.0,2.0,82,0.00,,SCT024TCU,0.01,0.00,VWS V14.01,2013-08-05 01:05:00,
2013-08-04 21:10:00,80.7,74.3,30.02,SE,135,1.0,3.0,81,0.00,,SCT024TCU,0.01,0.00,VWS V14.01,2013-08-05 01:10:00,
2013-08-04 21:15:00,80.6,74.2,30.02,SE,135,0.0,3.0,81,0.00,,SCT024TCU,0.01,0.00,VWS V14.01,2013-08-05 01:15:00,
2013-08-04 21:20:00,80.6,74.2,30.02,SE,135,0.0,0.0,81,0.00,,SCT024TCU,0.01,0.00,VWS V14.01,2013-08-05 01:20:00,
2013-08-04 21:25:00,80.5,74.1,30.01,SE,135,0.0,2.0,81,0.00,,SCT024TCU,0.01,0.00,VWS V14.01,2013-08-05 01:25:00,
2013-08-04 21:30:00,80.4,74.0,30.02,SE,135,0.0,1.0,81,0.00,,SCT024TCU,0.01,0.00,VWS V14.01,2013-08-05 01:30:00,
2013-08-04 21:35:00,80.4,74.0,30.01,SE,135,0.0,1.0,81,0.00,,SCT024TCU,0.01,0.00,VWS V14.01,2013-08-05 01:35:00,
2013-08-04 21:40:00,80.4,74.0,30.02,SE,135,0.0,0.0,81,0.00,,SCT024TCU,0.01,0.00,VWS V14.01,2013-08-05 01:40:00,
2013-08-04 21:45:00,80.4,74.0,30.02,SE,135,0.0,0.0,81,0.00,,SCT024TCU,0.01,0.00,VWS V14.01,2013-08-05 01:45:00,
2013-08-04 21:50:00,80.4,74.0,30.02,SE,135,0.0,0.0,81,0.00,,SCT024TCU,0.01,0.00,VWS V14.01,2013-08-05 01:50:00,
2013-08-04 21:55:00,80.3,73.9,30.02,SE,135,0.0,0.0,81,0.00,,SCT024TCU,0.01,0.00,VWS V14.01,2013-08-05 01:55:00,
2013-08-04 22:00:00,80.3,73.9,30.01,SE,135,0.0,0.0,81,0.00,,SCT024TCU,0.01,0.00,VWS V14.01,2013-08-05 02:00:00,
2013-08-04 22:05:00,80.4,74.0,30.01,SE,135,0.0,0.0,81,0.00,,SCT024TCU,0.01,0.00,VWS V14.01,2013-08-05 02:05:00,
2013-08-04 22:10:00,80.4,74.4,30.01,SE,135,0.0,0.0,82,0.00,,SCT024TCU,0.01,0.00,VWS V14.01,2013-08-05 02:10:00,
2013-08-04 22:15:00,80.3,74.3,30.02,SE,135,0.0,0.0,82,0.00,,SCT024TCU,0.01,0.00,VWS V14.01,2013-08-05 02:15:00,
2013-08-04 22:20:00,80.3,74.3,30.02,SE,135,0.0,0.0,82,0.00,,SCT024TCU,0.01,0.00,VWS V14.01,2013-08-05 02:20:00,
2013-08-04 22:25:00,80.3,74.3,30.02,SE,135,0.0,0.0,82,0.00,,SCT024TCU,0.01,0.00,VWS V14.01,2013-08-05 02:25:00,
2013-08-04 22:30:00,80.3,74.3,30.01,SE,135,0.0,0.0,82,0.00,,SCT024TCU,0.01,0.00,VWS V14.01,2013-08-05 02:30:00,
2013-08-04 22:35:00,80.2,74.2,30.01,SE,135,0.0,0.0,82,0.00,,SCT024TCU,0.01,0.00,VWS V14.01,2013-08-05 02:35:00,
2013-08-04 22:40:00,80.2,74.2,30.01,SE,135,0.0,0.0,82,0.00,,SCT024TCU,0.01,0.00,VWS V14.01,2013-08-05 02:40:00,
2013-08-04 22:45:00,80.2,74.2,30.01,SE,135,0.0,1.0,82,0.00,,SCT024TCU,0.01,0.00,VWS V14.01,2013-08-05 02:45:00,
2013-08-04 22:50:00,80.2,74.2,30.01,SE,135,0.0,1.0,82,0.00,,SCT024TCU,0.01,0.00,VWS V14.01,2013-08-05 02:50:00,
2013-08-04 22:55:00,80.3,74.3,30.01,SE,135,0.0,0.0,82,0.00,,SCT024TCU,0.01,0.00,VWS V14.01,2013-08-05 02:55:00,
2013-08-04 23:00:00,80.3,74.3,30.01,SE,135,0.0,1.0,82,0.00,,SCT024TCU,0.01,0.00,VWS V14.01,2013-08-05 03:00:00,
2013-08-04 23:05:00,80.3,74.3,30.01,SE,135,1.0,4.0,82,0.00,,SCT024TCU,0.01,0.00,VWS V14.01,2013-08-05 03:05:00,
2013-08-04 23:10:00,80.4,74.8,30.01,SSE,158,1.0,4.0,83,0.00,,SCT024TCU,0.01,0.00,VWS V14.01,2013-08-05 03:10:00,
2013-08-04 23:20:00,80.3,74.7,30.01,SSE,158,0.0,2.0,83,0.00,,SCT024TCU,0.01,0.00,VWS V14.01,2013-08-05 03:20:00,
2013-08-04 23:25:00,80.3,75.0,30.01,SSE,158,1.0,3.0,84,0.00,,SCT024TCU,0.01,0.00,VWS V14.01,2013-08-05 03:25:00,
2013-08-04 23:30:00,80.3,75.0,30.01,SSE,158,1.0,3.0,84,0.00,,SCT024TCU,0.01,0.00,VWS V14.01,2013-08-05 03:30:00,
2013-08-04 23:35:00,80.3,75.0,30.01,SSE,158,0.0,4.0,84,0.00,,SCT024TCU,0.01,0.00,VWS V14.01,2013-08-05 03:35:00,
2013-08-04 23:40:00,80.2,75.3,30.01,South,180,0.0,3.0,85,0.00,,SCT024TCU,0.01,0.00,VWS V14.01,2013-08-05 03:40:00,
2013-08-04 23:45:00,80.2,75.3,30.01,South,180,0.0,2.0,85,0.00,,SCT024TCU,0.01,0.00,VWS V14.01,2013-08-05 03:45:00,
2013-08-04 23:50:00,80.1,75.5,30.01,South,180,1.0,5.0,86,0.00,,SCT024TCU,0.01,0.00,VWS V14.01,2013-08-05 03:50:00,
2013-08-04 23:55:00,80.0,75.4,30.01,South,180,1.0,4.0,86,0.00,,SCT024TCU,0.01,0.00,VWS V14.01,2013-08-05 03:55:00,